Proxecto Medidor Ambiental

IES Escolas Proval - IES Val Miñor - Hermes Smart Control

MEDIDOR 4 - Consulta de Datos

DIA:MES:ANO:    TIPO DE GRÁFICA:

Arquivo diario: medidor4_datos_2024_06_23.txt

DD/MM/AAAA; HH:MM:SS; MED; 'TEMP';  'HUM';  'CO2'; 'LUM' ; 'PRES'; 'VAL6'; 'VAL7'; 'VAL8'; 'VAL9';'VAL10'  
23/06/2024; 00:00:04; 004;  31,53;   42,4;    424;      0;       ;       ;       ;       ;       ;        
23/06/2024; 00:01:04; 004;  31,53;   42,5;    424;      0;       ;       ;       ;       ;       ;        
23/06/2024; 00:02:04; 004;  31,53;   42,4;    424;      0;       ;       ;       ;       ;       ;        
23/06/2024; 00:03:04; 004;  31,53;   42,4;    425;      0;       ;       ;       ;       ;       ;        
23/06/2024; 00:04:04; 004;  31,56;   42,4;    424;      0;       ;       ;       ;       ;       ;        
23/06/2024; 00:05:04; 004;  31,58;   42,4;    425;      0;       ;       ;       ;       ;       ;        
23/06/2024; 00:06:04; 004;  31,55;   42,4;    426;      0;       ;       ;       ;       ;       ;        
23/06/2024; 00:07:04; 004;  31,55;   42,4;    426;      0;       ;       ;       ;       ;       ;        
23/06/2024; 00:08:04; 004;  31,56;   42,4;    425;      0;       ;       ;       ;       ;       ;        
23/06/2024; 00:09:04; 004;  31,56;   42,4;    426;      0;       ;       ;       ;       ;       ;        
23/06/2024; 00:10:04; 004;  31,56;   42,4;    426;      0;       ;       ;       ;       ;       ;        
23/06/2024; 00:11:04; 004;  31,53;   42,3;    425;      0;       ;       ;       ;       ;       ;        
23/06/2024; 00:12:04; 004;  31,58;   42,4;    425;      0;       ;       ;       ;       ;       ;        
23/06/2024; 00:13:04; 004;  31,55;   42,4;    426;      0;       ;       ;       ;       ;       ;        
23/06/2024; 00:14:04; 004;  31,55;   42,4;    426;      0;       ;       ;       ;       ;       ;        
23/06/2024; 00:15:04; 004;  31,55;   42,4;    426;      0;       ;       ;       ;       ;       ;        
23/06/2024; 00:16:04; 004;  31,56;   42,4;    425;      0;       ;       ;       ;       ;       ;        
23/06/2024; 00:17:04; 004;  31,55;   42,4;    425;      0;       ;       ;       ;       ;       ;        
23/06/2024; 00:18:04; 004;  31,58;   42,4;    426;      0;       ;       ;       ;       ;       ;        
23/06/2024; 00:19:04; 004;  31,55;   42,4;    425;      0;       ;       ;       ;       ;       ;        
23/06/2024; 00:20:04; 004;  31,55;   42,4;    425;      0;       ;       ;       ;       ;       ;        
23/06/2024; 00:21:04; 004;  31,55;   42,5;    426;      0;       ;       ;       ;       ;       ;        
23/06/2024; 00:22:04; 004;  31,52;   42,4;    426;      0;       ;       ;       ;       ;       ;        
23/06/2024; 00:23:04; 004;  31,52;   42,5;    427;      0;       ;       ;       ;       ;       ;        
23/06/2024; 00:24:04; 004;  31,56;   42,5;    427;      0;       ;       ;       ;       ;       ;        
23/06/2024; 00:25:04; 004;  31,55;   42,4;    427;      0;       ;       ;       ;       ;       ;        
23/06/2024; 00:26:04; 004;  31,56;   42,4;    426;      0;       ;       ;       ;       ;       ;        
23/06/2024; 00:27:04; 004;  31,55;   42,4;    426;      0;       ;       ;       ;       ;       ;        
23/06/2024; 00:28:04; 004;  31,55;   42,4;    426;      0;       ;       ;       ;       ;       ;        
23/06/2024; 00:29:04; 004;  31,55;   42,4;    427;      0;       ;       ;       ;       ;       ;        
23/06/2024; 00:30:04; 004;  31,52;   42,4;    427;      0;       ;       ;       ;       ;       ;        
23/06/2024; 00:31:04; 004;  31,56;   42,4;    427;      0;       ;       ;       ;       ;       ;        
23/06/2024; 00:32:04; 004;  31,53;   42,4;    426;      0;       ;       ;       ;       ;       ;        
23/06/2024; 00:33:04; 004;  31,56;   42,4;    427;      0;       ;       ;       ;       ;       ;        
23/06/2024; 00:34:04; 004;  31,58;   42,4;    427;      0;       ;       ;       ;       ;       ;        
23/06/2024; 00:35:04; 004;  31,53;   42,4;    426;      0;       ;       ;       ;       ;       ;        
23/06/2024; 00:36:04; 004;  31,55;   42,4;    427;      0;       ;       ;       ;       ;       ;        
23/06/2024; 00:37:04; 004;  31,53;   42,4;    426;      0;       ;       ;       ;       ;       ;        
23/06/2024; 00:38:04; 004;  31,55;   42,5;    425;      0;       ;       ;       ;       ;       ;        
23/06/2024; 00:39:04; 004;  31,53;   42,4;    428;      0;       ;       ;       ;       ;       ;        
23/06/2024; 00:40:04; 004;  31,53;   42,4;    427;      0;       ;       ;       ;       ;       ;        
23/06/2024; 00:41:04; 004;  31,52;   42,4;    426;      0;       ;       ;       ;       ;       ;        
23/06/2024; 00:42:04; 004;  31,53;   42,5;    426;      0;       ;       ;       ;       ;       ;        
23/06/2024; 00:43:04; 004;  31,55;   42,4;    427;      0;       ;       ;       ;       ;       ;        
23/06/2024; 00:44:04; 004;  31,56;   42,4;    426;      0;       ;       ;       ;       ;       ;        
23/06/2024; 00:45:04; 004;  31,53;   42,5;    426;      0;       ;       ;       ;       ;       ;        
23/06/2024; 00:46:04; 004;  31,55;   42,4;    426;      0;       ;       ;       ;       ;       ;        
23/06/2024; 00:47:04; 004;  31,53;   42,4;    427;      0;       ;       ;       ;       ;       ;        
23/06/2024; 00:48:04; 004;  31,53;   42,4;    427;      0;       ;       ;       ;       ;       ;        
23/06/2024; 00:49:04; 004;  31,53;   42,4;    427;      0;       ;       ;       ;       ;       ;        
23/06/2024; 00:50:04; 004;  31,52;   42,5;    427;      0;       ;       ;       ;       ;       ;        
23/06/2024; 00:51:04; 004;  31,53;   42,5;    427;      0;       ;       ;       ;       ;       ;        
23/06/2024; 00:52:04; 004;  31,53;   42,4;    428;      0;       ;       ;       ;       ;       ;        
23/06/2024; 00:53:04; 004;  31,55;   42,4;    427;      0;       ;       ;       ;       ;       ;        
23/06/2024; 00:54:04; 004;  31,53;   42,5;    428;      0;       ;       ;       ;       ;       ;        
23/06/2024; 00:55:04; 004;  31,52;   42,4;    429;      0;       ;       ;       ;       ;       ;        
23/06/2024; 00:56:04; 004;  31,53;   42,4;    427;      0;       ;       ;       ;       ;       ;        
23/06/2024; 00:57:04; 004;  31,53;   42,4;    428;      0;       ;       ;       ;       ;       ;        
23/06/2024; 00:58:04; 004;  31,55;   42,4;    430;      0;       ;       ;       ;       ;       ;        
23/06/2024; 00:59:04; 004;  31,51;   42,4;    429;      0;       ;       ;       ;       ;       ;        
23/06/2024; 01:00:04; 004;  31,53;   42,4;    429;      0;       ;       ;       ;       ;       ;        
23/06/2024; 01:01:04; 004;  31,51;   42,4;    428;      0;       ;       ;       ;       ;       ;        
23/06/2024; 01:02:04; 004;  31,53;   42,4;    429;      0;       ;       ;       ;       ;       ;        
23/06/2024; 01:03:04; 004;  31,53;   42,4;    427;      0;       ;       ;       ;       ;       ;        
23/06/2024; 01:04:04; 004;  31,52;   42,5;    428;      0;       ;       ;       ;       ;       ;        
23/06/2024; 01:05:04; 004;  31,53;   42,5;    428;      0;       ;       ;       ;       ;       ;        
23/06/2024; 01:06:04; 004;  31,51;   42,5;    428;      0;       ;       ;       ;       ;       ;        
23/06/2024; 01:07:04; 004;  31,55;   42,4;    428;      0;       ;       ;       ;       ;       ;        
23/06/2024; 01:08:04; 004;  31,53;   42,4;    430;      0;       ;       ;       ;       ;       ;        
23/06/2024; 01:09:04; 004;  31,55;   42,4;    430;      0;       ;       ;       ;       ;       ;        
23/06/2024; 01:10:04; 004;  31,52;   42,5;    428;      0;       ;       ;       ;       ;       ;        
23/06/2024; 01:11:04; 004;  31,52;   42,4;    426;      0;       ;       ;       ;       ;       ;        
23/06/2024; 01:12:04; 004;  31,52;   42,5;    428;      0;       ;       ;       ;       ;       ;        
23/06/2024; 01:13:04; 004;  31,52;   42,4;    429;      0;       ;       ;       ;       ;       ;        
23/06/2024; 01:14:04; 004;  31,53;   42,4;    427;      0;       ;       ;       ;       ;       ;        
23/06/2024; 01:15:04; 004;  31,55;   42,5;    428;      0;       ;       ;       ;       ;       ;        
23/06/2024; 01:16:04; 004;  31,55;   42,5;    426;      0;       ;       ;       ;       ;       ;        
23/06/2024; 01:17:04; 004;  31,53;   42,4;    426;      0;       ;       ;       ;       ;       ;        
23/06/2024; 01:18:04; 004;  31,53;   42,4;    426;      0;       ;       ;       ;       ;       ;        
23/06/2024; 01:19:04; 004;  31,55;   42,4;    427;      0;       ;       ;       ;       ;       ;        
23/06/2024; 01:20:04; 004;  31,52;   42,5;    427;      0;       ;       ;       ;       ;       ;        
23/06/2024; 01:21:04; 004;  31,55;   42,4;    428;      0;       ;       ;       ;       ;       ;        
23/06/2024; 01:22:04; 004;  31,55;   42,4;    427;      0;       ;       ;       ;       ;       ;        
23/06/2024; 01:23:04; 004;  31,55;   42,4;    426;      0;       ;       ;       ;       ;       ;        
23/06/2024; 01:24:04; 004;  31,56;   42,4;    427;      0;       ;       ;       ;       ;       ;        
23/06/2024; 01:25:04; 004;  31,52;   42,4;    427;      0;       ;       ;       ;       ;       ;        
23/06/2024; 01:26:04; 004;  31,51;   42,4;    429;      0;       ;       ;       ;       ;       ;        
23/06/2024; 01:27:04; 004;  31,53;   42,4;    429;      0;       ;       ;       ;       ;       ;        
23/06/2024; 01:28:04; 004;  31,53;   42,4;    428;      0;       ;       ;       ;       ;       ;        
23/06/2024; 01:29:04; 004;  31,53;   42,4;    427;      0;       ;       ;       ;       ;       ;        
23/06/2024; 01:30:04; 004;  31,52;   42,4;    428;      0;       ;       ;       ;       ;       ;        
23/06/2024; 01:31:04; 004;  31,55;   42,4;    426;      0;       ;       ;       ;       ;       ;        
23/06/2024; 01:32:04; 004;  31,53;   42,4;    428;      0;       ;       ;       ;       ;       ;        
23/06/2024; 01:33:04; 004;  31,53;   42,5;    428;      0;       ;       ;       ;       ;       ;        
23/06/2024; 01:34:04; 004;  31,55;   42,4;    427;      0;       ;       ;       ;       ;       ;        
23/06/2024; 01:35:04; 004;  31,49;   42,4;    429;      0;       ;       ;       ;       ;       ;        
23/06/2024; 01:36:04; 004;  31,51;   42,4;    430;      0;       ;       ;       ;       ;       ;        
23/06/2024; 01:37:04; 004;  31,51;   42,5;    430;      0;       ;       ;       ;       ;       ;        
23/06/2024; 01:38:04; 004;  31,51;   42,5;    430;      0;       ;       ;       ;       ;       ;        
23/06/2024; 01:39:04; 004;  31,51;   42,5;    430;      0;       ;       ;       ;       ;       ;        
23/06/2024; 01:40:04; 004;  31,49;   42,4;    428;      0;       ;       ;       ;       ;       ;        
23/06/2024; 01:41:04; 004;  31,49;   42,4;    429;      0;       ;       ;       ;       ;       ;        
23/06/2024; 01:42:04; 004;  31,53;   42,4;    429;      0;       ;       ;       ;       ;       ;        
23/06/2024; 01:43:04; 004;  31,52;   42,4;    429;      0;       ;       ;       ;       ;       ;        
23/06/2024; 01:44:04; 004;  31,51;   42,5;    430;      0;       ;       ;       ;       ;       ;        
23/06/2024; 01:45:04; 004;  31,53;   42,5;    429;      0;       ;       ;       ;       ;       ;        
23/06/2024; 01:46:04; 004;  31,49;   42,4;    430;      0;       ;       ;       ;       ;       ;        
23/06/2024; 01:47:04; 004;  31,51;   42,4;    430;      0;       ;       ;       ;       ;       ;        
23/06/2024; 01:48:04; 004;  31,51;   42,4;    430;      0;       ;       ;       ;       ;       ;        
23/06/2024; 01:49:04; 004;  31,55;   42,5;    430;      0;       ;       ;       ;       ;       ;        
23/06/2024; 01:50:04; 004;  31,51;   42,5;    430;      0;       ;       ;       ;       ;       ;        
23/06/2024; 01:51:04; 004;  31,51;   42,4;    430;      0;       ;       ;       ;       ;       ;        
23/06/2024; 01:52:04; 004;  31,52;   42,4;    430;      0;       ;       ;       ;       ;       ;        
23/06/2024; 01:53:04; 004;  31,52;   42,5;    430;      0;       ;       ;       ;       ;       ;        
23/06/2024; 01:54:05; 004;  31,51;   42,4;    431;      0;       ;       ;       ;       ;       ;        
23/06/2024; 01:55:04; 004;  31,49;   42,5;    430;      0;       ;       ;       ;       ;       ;        
23/06/2024; 01:56:04; 004;  31,52;   42,5;    430;      0;       ;       ;       ;       ;       ;        
23/06/2024; 01:57:04; 004;  31,51;   42,4;    431;      0;       ;       ;       ;       ;       ;        
23/06/2024; 01:58:05; 004;  31,52;   42,5;    433;      0;       ;       ;       ;       ;       ;        
23/06/2024; 01:59:04; 004;  31,51;   42,4;    431;      0;       ;       ;       ;       ;       ;        
23/06/2024; 02:00:04; 004;  31,48;   42,5;    430;      0;       ;       ;       ;       ;       ;        
23/06/2024; 02:01:04; 004;  31,51;   42,5;    430;      0;       ;       ;       ;       ;       ;        
23/06/2024; 02:02:05; 004;  31,52;   42,5;    431;      0;       ;       ;       ;       ;       ;        
23/06/2024; 02:03:04; 004;  31,49;   42,5;    431;      0;       ;       ;       ;       ;       ;        
23/06/2024; 02:04:04; 004;  31,52;   42,5;    431;      0;       ;       ;       ;       ;       ;        
23/06/2024; 02:05:04; 004;  31,51;   42,4;    433;      0;       ;       ;       ;       ;       ;        
23/06/2024; 02:06:04; 004;  31,52;   42,4;    432;      0;       ;       ;       ;       ;       ;        
23/06/2024; 02:07:05; 004;  31,52;   42,4;    433;      0;       ;       ;       ;       ;       ;        
23/06/2024; 02:08:04; 004;  31,51;   42,5;    433;      0;       ;       ;       ;       ;       ;        
23/06/2024; 02:09:04; 004;  31,51;   42,5;    430;      0;       ;       ;       ;       ;       ;        
23/06/2024; 02:10:05; 004;  31,49;   42,4;    430;      0;       ;       ;       ;       ;       ;        
23/06/2024; 02:11:05; 004;  31,52;   42,4;    431;      0;       ;       ;       ;       ;       ;        
23/06/2024; 02:12:05; 004;  31,49;   42,4;    431;      0;       ;       ;       ;       ;       ;        
23/06/2024; 02:13:05; 004;  31,52;   42,4;    431;      0;       ;       ;       ;       ;       ;        
23/06/2024; 02:14:05; 004;  31,52;   42,5;    431;      0;       ;       ;       ;       ;       ;        
23/06/2024; 02:15:05; 004;  31,51;   42,4;    431;      0;       ;       ;       ;       ;       ;        
23/06/2024; 02:16:05; 004;  31,49;   42,5;    432;      0;       ;       ;       ;       ;       ;        
23/06/2024; 02:17:05; 004;  31,49;   42,4;    431;      0;       ;       ;       ;       ;       ;        
23/06/2024; 02:18:05; 004;  31,49;   42,4;    430;      0;       ;       ;       ;       ;       ;        
23/06/2024; 02:19:05; 004;  31,49;   42,4;    431;      0;       ;       ;       ;       ;       ;        
23/06/2024; 02:20:05; 004;  31,51;   42,4;    432;      0;       ;       ;       ;       ;       ;        
23/06/2024; 02:21:05; 004;  31,49;   42,5;    432;      0;       ;       ;       ;       ;       ;        
23/06/2024; 02:22:05; 004;  31,49;   42,5;    433;      0;       ;       ;       ;       ;       ;        
23/06/2024; 02:23:05; 004;  31,48;   42,4;    431;      0;       ;       ;       ;       ;       ;        
23/06/2024; 02:24:05; 004;  31,49;   42,5;    431;      0;       ;       ;       ;       ;       ;        
23/06/2024; 02:25:05; 004;  31,49;   42,4;    431;      0;       ;       ;       ;       ;       ;        
23/06/2024; 02:26:05; 004;  31,49;   42,4;    432;      0;       ;       ;       ;       ;       ;        
23/06/2024; 02:27:05; 004;  31,49;   42,5;    433;      0;       ;       ;       ;       ;       ;        
23/06/2024; 02:28:05; 004;  31,51;   42,4;    433;      0;       ;       ;       ;       ;       ;        
23/06/2024; 02:29:05; 004;  31,49;   42,5;    433;      0;       ;       ;       ;       ;       ;        
23/06/2024; 02:30:05; 004;  31,49;   42,5;    433;      0;       ;       ;       ;       ;       ;        
23/06/2024; 02:31:05; 004;  31,46;   42,5;    433;      0;       ;       ;       ;       ;       ;        
23/06/2024; 02:32:05; 004;  31,48;   42,4;    433;      0;       ;       ;       ;       ;       ;        
23/06/2024; 02:33:05; 004;  31,49;   42,5;    433;      0;       ;       ;       ;       ;       ;        
23/06/2024; 02:34:05; 004;  31,49;   42,5;    434;      0;       ;       ;       ;       ;       ;        
23/06/2024; 02:35:05; 004;  31,51;   42,5;    435;      0;       ;       ;       ;       ;       ;        
23/06/2024; 02:36:05; 004;  31,51;   42,5;    433;      0;       ;       ;       ;       ;       ;        
23/06/2024; 02:37:05; 004;  31,49;   42,4;    432;      0;       ;       ;       ;       ;       ;        
23/06/2024; 02:38:05; 004;  31,49;   42,5;    432;      0;       ;       ;       ;       ;       ;        
23/06/2024; 02:39:05; 004;  31,46;   42,4;    434;      0;       ;       ;       ;       ;       ;        
23/06/2024; 02:40:05; 004;  31,48;   42,5;    433;      0;       ;       ;       ;       ;       ;        
23/06/2024; 02:41:05; 004;  31,46;   42,5;    434;      0;       ;       ;       ;       ;       ;        
23/06/2024; 02:42:05; 004;  31,46;   42,5;    434;      0;       ;       ;       ;       ;       ;        
23/06/2024; 02:43:05; 004;  31,48;   42,5;    434;      0;       ;       ;       ;       ;       ;        
23/06/2024; 02:44:05; 004;  31,48;   42,5;    434;      0;       ;       ;       ;       ;       ;        
23/06/2024; 02:45:05; 004;  31,46;   42,5;    435;      0;       ;       ;       ;       ;       ;        
23/06/2024; 02:46:05; 004;  31,48;   42,5;    435;      0;       ;       ;       ;       ;       ;        
23/06/2024; 02:47:05; 004;  31,49;   42,5;    435;      0;       ;       ;       ;       ;       ;        
23/06/2024; 02:48:05; 004;  31,46;   42,5;    433;      0;       ;       ;       ;       ;       ;        
23/06/2024; 02:49:05; 004;  31,49;   42,5;    434;      0;       ;       ;       ;       ;       ;        
23/06/2024; 02:50:05; 004;  31,48;   42,5;    435;      0;       ;       ;       ;       ;       ;        
23/06/2024; 02:51:05; 004;  31,46;   42,5;    435;      0;       ;       ;       ;       ;       ;        
23/06/2024; 02:52:05; 004;  31,46;   42,4;    435;      0;       ;       ;       ;       ;       ;        
23/06/2024; 02:53:05; 004;  31,45;   42,5;    436;      0;       ;       ;       ;       ;       ;        
23/06/2024; 02:54:05; 004;  31,46;   42,5;    434;      0;       ;       ;       ;       ;       ;        
23/06/2024; 02:55:05; 004;  31,46;   42,5;    434;      0;       ;       ;       ;       ;       ;        
23/06/2024; 02:56:05; 004;  31,45;   42,5;    434;      0;       ;       ;       ;       ;       ;        
23/06/2024; 02:57:05; 004;  31,45;   42,5;    437;      0;       ;       ;       ;       ;       ;        
23/06/2024; 02:58:05; 004;  31,45;   42,5;    437;      0;       ;       ;       ;       ;       ;        
23/06/2024; 02:59:05; 004;  31,46;   42,5;    436;      0;       ;       ;       ;       ;       ;        
23/06/2024; 03:00:05; 004;  31,46;   42,5;    437;      0;       ;       ;       ;       ;       ;        
23/06/2024; 03:01:05; 004;  31,48;   42,5;    438;      0;       ;       ;       ;       ;       ;        
23/06/2024; 03:02:05; 004;  31,44;   42,4;    437;      0;       ;       ;       ;       ;       ;        
23/06/2024; 03:03:05; 004;  31,46;   42,5;    437;      0;       ;       ;       ;       ;       ;        
23/06/2024; 03:04:05; 004;  31,45;   42,5;    436;      0;       ;       ;       ;       ;       ;        
23/06/2024; 03:05:05; 004;  31,46;   42,5;    435;      0;       ;       ;       ;       ;       ;        
23/06/2024; 03:06:05; 004;  31,46;   42,5;    436;      0;       ;       ;       ;       ;       ;        
23/06/2024; 03:07:05; 004;  31,44;   42,5;    437;      0;       ;       ;       ;       ;       ;        
23/06/2024; 03:08:05; 004;  31,46;   42,4;    435;      0;       ;       ;       ;       ;       ;        
23/06/2024; 03:09:05; 004;  31,48;   42,5;    438;      0;       ;       ;       ;       ;       ;        
23/06/2024; 03:10:05; 004;  31,45;   42,5;    437;      0;       ;       ;       ;       ;       ;        
23/06/2024; 03:11:05; 004;  31,44;   42,5;    437;      0;       ;       ;       ;       ;       ;        
23/06/2024; 03:12:05; 004;  31,45;   42,5;    438;      0;       ;       ;       ;       ;       ;        
23/06/2024; 03:13:05; 004;  31,44;   42,5;    438;      0;       ;       ;       ;       ;       ;        
23/06/2024; 03:14:05; 004;  31,45;   42,5;    438;      0;       ;       ;       ;       ;       ;        
23/06/2024; 03:15:05; 004;  31,46;   42,5;    437;      0;       ;       ;       ;       ;       ;        
23/06/2024; 03:16:05; 004;  31,45;   42,5;    438;      0;       ;       ;       ;       ;       ;        
23/06/2024; 03:17:05; 004;  31,46;   42,5;    438;      0;       ;       ;       ;       ;       ;        
23/06/2024; 03:18:05; 004;  31,45;   42,5;    438;      0;       ;       ;       ;       ;       ;        
23/06/2024; 03:19:05; 004;  31,45;   42,5;    437;      0;       ;       ;       ;       ;       ;        
23/06/2024; 03:20:05; 004;  31,44;   42,5;    437;      0;       ;       ;       ;       ;       ;        
23/06/2024; 03:21:05; 004;  31,42;   42,5;    437;      0;       ;       ;       ;       ;       ;        
23/06/2024; 03:22:05; 004;  31,46;   42,5;    438;      0;       ;       ;       ;       ;       ;        
23/06/2024; 03:23:05; 004;  31,44;   42,6;    438;      0;       ;       ;       ;       ;       ;        
23/06/2024; 03:24:05; 004;  31,42;   42,5;    438;      0;       ;       ;       ;       ;       ;        
23/06/2024; 03:25:05; 004;  31,42;   42,5;    438;      0;       ;       ;       ;       ;       ;        
23/06/2024; 03:26:05; 004;  31,44;   42,5;    439;      0;       ;       ;       ;       ;       ;        
23/06/2024; 03:27:05; 004;  31,45;   42,5;    441;      0;       ;       ;       ;       ;       ;        
23/06/2024; 03:28:05; 004;  31,42;   42,5;    438;      0;       ;       ;       ;       ;       ;        
23/06/2024; 03:29:05; 004;  31,44;   42,5;    440;      0;       ;       ;       ;       ;       ;        
23/06/2024; 03:30:05; 004;  31,44;   42,5;    439;      0;       ;       ;       ;       ;       ;        
23/06/2024; 03:31:05; 004;  31,45;   42,5;    439;      0;       ;       ;       ;       ;       ;        
23/06/2024; 03:32:05; 004;  31,42;   42,5;    439;      0;       ;       ;       ;       ;       ;        
23/06/2024; 03:33:05; 004;  31,45;   42,5;    440;      0;       ;       ;       ;       ;       ;        
23/06/2024; 03:34:05; 004;  31,41;   42,5;    439;      0;       ;       ;       ;       ;       ;        
23/06/2024; 03:35:05; 004;  31,42;   42,5;    439;      0;       ;       ;       ;       ;       ;        
23/06/2024; 03:36:05; 004;  31,44;   42,5;    440;      0;       ;       ;       ;       ;       ;        
23/06/2024; 03:37:05; 004;  31,41;   42,5;    440;      0;       ;       ;       ;       ;       ;        
23/06/2024; 03:38:05; 004;  31,44;   42,5;    439;      0;       ;       ;       ;       ;       ;        
23/06/2024; 03:39:05; 004;  31,41;   42,5;    440;      0;       ;       ;       ;       ;       ;        
23/06/2024; 03:40:05; 004;  31,42;   42,5;    440;      0;       ;       ;       ;       ;       ;        
23/06/2024; 03:41:05; 004;  31,42;   42,5;    439;      0;       ;       ;       ;       ;       ;        
23/06/2024; 03:42:05; 004;  31,39;   42,5;    441;      0;       ;       ;       ;       ;       ;        
23/06/2024; 03:43:05; 004;  31,42;   42,5;    442;      0;       ;       ;       ;       ;       ;        
23/06/2024; 03:44:05; 004;  31,44;   42,5;    442;      0;       ;       ;       ;       ;       ;        
23/06/2024; 03:45:05; 004;  31,42;   42,5;    442;      0;       ;       ;       ;       ;       ;        
23/06/2024; 03:46:05; 004;  31,42;   42,5;    442;      0;       ;       ;       ;       ;       ;        
23/06/2024; 03:47:05; 004;  31,44;   42,5;    441;      0;       ;       ;       ;       ;       ;        
23/06/2024; 03:48:05; 004;  31,42;   42,5;    441;      0;       ;       ;       ;       ;       ;        
23/06/2024; 03:49:05; 004;  31,41;   42,5;    439;      0;       ;       ;       ;       ;       ;        
23/06/2024; 03:50:05; 004;  31,39;   42,5;    439;      0;       ;       ;       ;       ;       ;        
23/06/2024; 03:51:05; 004;  31,42;   42,5;    441;      0;       ;       ;       ;       ;       ;        
23/06/2024; 03:52:05; 004;  31,42;   42,5;    441;      0;       ;       ;       ;       ;       ;        
23/06/2024; 03:53:05; 004;  31,41;   42,5;    441;      0;       ;       ;       ;       ;       ;        
23/06/2024; 03:54:05; 004;  31,38;   42,6;    442;      0;       ;       ;       ;       ;       ;        
23/06/2024; 03:55:05; 004;  31,39;   42,5;    442;      0;       ;       ;       ;       ;       ;        
23/06/2024; 03:56:05; 004;  31,39;   42,5;    440;      0;       ;       ;       ;       ;       ;        
23/06/2024; 03:57:05; 004;  31,39;   42,5;    442;      0;       ;       ;       ;       ;       ;        
23/06/2024; 03:58:05; 004;  31,39;   42,5;    441;      0;       ;       ;       ;       ;       ;        
23/06/2024; 03:59:05; 004;  31,39;   42,5;    442;      0;       ;       ;       ;       ;       ;        
23/06/2024; 04:00:05; 004;  31,39;   42,5;    441;      0;       ;       ;       ;       ;       ;        
23/06/2024; 04:01:05; 004;  31,38;   42,5;    442;      0;       ;       ;       ;       ;       ;        
23/06/2024; 04:02:05; 004;  31,41;   42,6;    442;      0;       ;       ;       ;       ;       ;        
23/06/2024; 04:03:05; 004;  31,41;   42,5;    440;      0;       ;       ;       ;       ;       ;        
23/06/2024; 04:04:05; 004;  31,38;   42,6;    440;      0;       ;       ;       ;       ;       ;        
23/06/2024; 04:05:05; 004;  31,39;   42,5;    443;      0;       ;       ;       ;       ;       ;        
23/06/2024; 04:06:05; 004;  31,41;   42,5;    443;      0;       ;       ;       ;       ;       ;        
23/06/2024; 04:07:05; 004;  31,38;   42,5;    441;      0;       ;       ;       ;       ;       ;        
23/06/2024; 04:08:05; 004;  31,42;   42,6;    441;      0;       ;       ;       ;       ;       ;        
23/06/2024; 04:09:05; 004;  31,41;   42,5;    442;      0;       ;       ;       ;       ;       ;        
23/06/2024; 04:10:05; 004;  31,38;   42,6;    442;      0;       ;       ;       ;       ;       ;        
23/06/2024; 04:11:05; 004;  31,36;   42,6;    441;      0;       ;       ;       ;       ;       ;        
23/06/2024; 04:12:05; 004;  31,38;   42,6;    445;      0;       ;       ;       ;       ;       ;        
23/06/2024; 04:13:05; 004;  31,35;   42,6;    443;      0;       ;       ;       ;       ;       ;        
23/06/2024; 04:14:05; 004;  31,38;   42,6;    441;      0;       ;       ;       ;       ;       ;        
23/06/2024; 04:15:05; 004;  31,38;   42,6;    442;      0;       ;       ;       ;       ;       ;        
23/06/2024; 04:16:05; 004;  31,35;   42,6;    442;      0;       ;       ;       ;       ;       ;        
23/06/2024; 04:17:05; 004;  31,39;   42,6;    442;      0;       ;       ;       ;       ;       ;        
23/06/2024; 04:18:05; 004;  31,36;   42,6;    441;      0;       ;       ;       ;       ;       ;        
23/06/2024; 04:19:05; 004;  31,38;   42,6;    441;      0;       ;       ;       ;       ;       ;        
23/06/2024; 04:20:05; 004;  31,38;   42,6;    442;      0;       ;       ;       ;       ;       ;        
23/06/2024; 04:21:05; 004;  31,36;   42,5;    443;      0;       ;       ;       ;       ;       ;        
23/06/2024; 04:22:05; 004;  31,36;   42,6;    443;      0;       ;       ;       ;       ;       ;        
23/06/2024; 04:23:05; 004;  31,36;   42,6;    444;      0;       ;       ;       ;       ;       ;        
23/06/2024; 04:24:05; 004;  31,35;   42,6;    444;      0;       ;       ;       ;       ;       ;        
23/06/2024; 04:25:05; 004;  31,39;   42,5;    444;      0;       ;       ;       ;       ;       ;        
23/06/2024; 04:26:05; 004;  31,38;   42,6;    444;      0;       ;       ;       ;       ;       ;        
23/06/2024; 04:27:05; 004;  31,36;   42,6;    443;      0;       ;       ;       ;       ;       ;        
23/06/2024; 04:28:05; 004;  31,38;   42,6;    445;      0;       ;       ;       ;       ;       ;        
23/06/2024; 04:29:05; 004;  31,35;   42,6;    444;      0;       ;       ;       ;       ;       ;        
23/06/2024; 04:30:05; 004;  31,35;   42,6;    444;      0;       ;       ;       ;       ;       ;        
23/06/2024; 04:31:05; 004;  31,35;   42,6;    444;      0;       ;       ;       ;       ;       ;        
23/06/2024; 04:32:05; 004;  31,35;   42,6;    445;      0;       ;       ;       ;       ;       ;        
23/06/2024; 04:33:05; 004;  31,36;   42,6;    445;      0;       ;       ;       ;       ;       ;        
23/06/2024; 04:34:05; 004;  31,35;   42,6;    444;      0;       ;       ;       ;       ;       ;        
23/06/2024; 04:35:05; 004;  31,35;   42,6;    445;      0;       ;       ;       ;       ;       ;        
23/06/2024; 04:36:05; 004;  31,35;   42,6;    446;      0;       ;       ;       ;       ;       ;        
23/06/2024; 04:37:05; 004;  31,36;   42,6;    446;      0;       ;       ;       ;       ;       ;        
23/06/2024; 04:38:05; 004;  31,39;   42,6;    444;      0;       ;       ;       ;       ;       ;        
23/06/2024; 04:39:05; 004;  31,35;   42,6;    444;      0;       ;       ;       ;       ;       ;        
23/06/2024; 04:40:05; 004;  31,34;   42,6;    446;      0;       ;       ;       ;       ;       ;        
23/06/2024; 04:41:05; 004;  31,34;   42,6;    445;      0;       ;       ;       ;       ;       ;        
23/06/2024; 04:42:05; 004;  31,34;   42,6;    444;      0;       ;       ;       ;       ;       ;        
23/06/2024; 04:43:05; 004;  31,35;   42,7;    446;      0;       ;       ;       ;       ;       ;        
23/06/2024; 04:44:05; 004;  31,35;   42,6;    446;      0;       ;       ;       ;       ;       ;        
23/06/2024; 04:45:05; 004;  31,35;   42,6;    445;      0;       ;       ;       ;       ;       ;        
23/06/2024; 04:46:05; 004;  31,34;   42,6;    445;      0;       ;       ;       ;       ;       ;        
23/06/2024; 04:47:05; 004;  31,34;   42,6;    445;      0;       ;       ;       ;       ;       ;        
23/06/2024; 04:48:05; 004;  31,34;   42,6;    445;      0;       ;       ;       ;       ;       ;        
23/06/2024; 04:49:05; 004;  31,34;   42,6;    446;      0;       ;       ;       ;       ;       ;        
23/06/2024; 04:50:05; 004;  31,35;   42,6;    447;      0;       ;       ;       ;       ;       ;        
23/06/2024; 04:51:05; 004;  31,32;   42,7;    447;      0;       ;       ;       ;       ;       ;        
23/06/2024; 04:52:05; 004;  31,31;   42,7;    447;      0;       ;       ;       ;       ;       ;        
23/06/2024; 04:53:05; 004;  31,32;   42,7;    448;      0;       ;       ;       ;       ;       ;        
23/06/2024; 04:54:05; 004;  31,29;   42,6;    448;      0;       ;       ;       ;       ;       ;        
23/06/2024; 04:55:05; 004;  31,31;   42,6;    447;      0;       ;       ;       ;       ;       ;        
23/06/2024; 04:56:05; 004;  31,35;   42,6;    447;      0;       ;       ;       ;       ;       ;        
23/06/2024; 04:57:05; 004;  31,34;   42,6;    447;      0;       ;       ;       ;       ;       ;        
23/06/2024; 04:58:05; 004;  31,35;   42,6;    447;      0;       ;       ;       ;       ;       ;        
23/06/2024; 04:59:05; 004;  31,32;   42,6;    446;      0;       ;       ;       ;       ;       ;        
23/06/2024; 05:00:05; 004;  31,34;   42,6;    447;      0;       ;       ;       ;       ;       ;        
23/06/2024; 05:01:05; 004;  31,34;   42,6;    447;      0;       ;       ;       ;       ;       ;        
23/06/2024; 05:02:05; 004;  31,32;   42,6;    447;      0;       ;       ;       ;       ;       ;        
23/06/2024; 05:03:05; 004;  31,32;   42,6;    447;      0;       ;       ;       ;       ;       ;        
23/06/2024; 05:04:05; 004;  31,32;   42,7;    447;      0;       ;       ;       ;       ;       ;        
23/06/2024; 05:05:05; 004;  31,31;   42,7;    447;      0;       ;       ;       ;       ;       ;        
23/06/2024; 05:06:05; 004;  31,32;   42,7;    448;      0;       ;       ;       ;       ;       ;        
23/06/2024; 05:07:05; 004;  31,31;   42,6;    449;      0;       ;       ;       ;       ;       ;        
23/06/2024; 05:08:05; 004;  31,32;   42,6;    447;      0;       ;       ;       ;       ;       ;        
23/06/2024; 05:09:05; 004;  31,29;   42,7;    447;      0;       ;       ;       ;       ;       ;        
23/06/2024; 05:10:05; 004;  31,32;   42,7;    448;      0;       ;       ;       ;       ;       ;        
23/06/2024; 05:11:05; 004;  31,32;   42,7;    447;      0;       ;       ;       ;       ;       ;        
23/06/2024; 05:12:05; 004;  31,31;   42,6;    448;      0;       ;       ;       ;       ;       ;        
23/06/2024; 05:13:05; 004;  31,31;   42,6;    447;      0;       ;       ;       ;       ;       ;        
23/06/2024; 05:14:05; 004;  31,29;   42,6;    448;      0;       ;       ;       ;       ;       ;        
23/06/2024; 05:15:06; 004;  31,29;   42,6;    448;      0;       ;       ;       ;       ;       ;        
23/06/2024; 05:16:05; 004;  31,28;   42,7;    448;      0;       ;       ;       ;       ;       ;        
23/06/2024; 05:17:06; 004;  31,29;   42,7;    449;      0;       ;       ;       ;       ;       ;        
23/06/2024; 05:18:05; 004;  31,31;   42,7;    448;      0;       ;       ;       ;       ;       ;        
23/06/2024; 05:19:05; 004;  31,28;   42,7;    448;      0;       ;       ;       ;       ;       ;        
23/06/2024; 05:20:05; 004;  31,28;   42,7;    445;      0;       ;       ;       ;       ;       ;        
23/06/2024; 05:21:05; 004;  31,29;   42,7;    445;      0;       ;       ;       ;       ;       ;        
23/06/2024; 05:22:05; 004;  31,31;   42,7;    449;      0;       ;       ;       ;       ;       ;        
23/06/2024; 05:23:05; 004;  31,29;   42,6;    449;      0;       ;       ;       ;       ;       ;        
23/06/2024; 05:24:05; 004;  31,31;   42,6;    448;      0;       ;       ;       ;       ;       ;        
23/06/2024; 05:25:05; 004;  31,28;   42,7;    448;      0;       ;       ;       ;       ;       ;        
23/06/2024; 05:26:06; 004;  31,29;   42,7;    448;      0;       ;       ;       ;       ;       ;        
23/06/2024; 05:27:05; 004;  31,28;   42,7;    448;      0;       ;       ;       ;       ;       ;        
23/06/2024; 05:28:06; 004;  31,29;   42,7;    448;      0;       ;       ;       ;       ;       ;        
23/06/2024; 05:29:06; 004;  31,28;   42,7;    448;      0;       ;       ;       ;       ;       ;        
23/06/2024; 05:30:06; 004;  31,29;   42,7;    449;      0;       ;       ;       ;       ;       ;        
23/06/2024; 05:31:06; 004;  31,29;   42,7;    447;      0;       ;       ;       ;       ;       ;        
23/06/2024; 05:32:06; 004;  31,28;   42,7;    448;      0;       ;       ;       ;       ;       ;        
23/06/2024; 05:33:06; 004;  31,29;   42,7;    450;      0;       ;       ;       ;       ;       ;        
23/06/2024; 05:34:06; 004;  31,31;   42,7;    450;      0;       ;       ;       ;       ;       ;        
23/06/2024; 05:35:06; 004;  31,28;   42,6;    451;      0;       ;       ;       ;       ;       ;        
23/06/2024; 05:36:06; 004;  31,28;   42,7;    450;      0;       ;       ;       ;       ;       ;        
23/06/2024; 05:37:06; 004;  31,28;   42,7;    450;      0;       ;       ;       ;       ;       ;        
23/06/2024; 05:38:06; 004;  31,26;   42,7;    450;      0;       ;       ;       ;       ;       ;        
23/06/2024; 05:39:06; 004;  31,29;   42,7;    450;      0;       ;       ;       ;       ;       ;        
23/06/2024; 05:40:06; 004;  31,28;   42,7;    451;      0;       ;       ;       ;       ;       ;        
23/06/2024; 05:41:06; 004;  31,31;   42,7;    451;      0;       ;       ;       ;       ;       ;        
23/06/2024; 05:42:06; 004;  31,28;   42,6;    451;      0;       ;       ;       ;       ;       ;        
23/06/2024; 05:43:06; 004;  31,31;   42,7;    451;      0;       ;       ;       ;       ;       ;        
23/06/2024; 05:44:06; 004;  31,29;   42,7;    450;      0;       ;       ;       ;       ;       ;        
23/06/2024; 05:45:06; 004;  31,25;   42,6;    448;      0;       ;       ;       ;       ;       ;        
23/06/2024; 05:46:06; 004;  31,26;   42,7;    449;      0;       ;       ;       ;       ;       ;        
23/06/2024; 05:47:06; 004;  31,29;   42,7;    449;      0;       ;       ;       ;       ;       ;        
23/06/2024; 05:48:06; 004;  31,29;   42,7;    448;      0;       ;       ;       ;       ;       ;        
23/06/2024; 05:49:06; 004;  31,29;   42,6;    449;      0;       ;       ;       ;       ;       ;        
23/06/2024; 05:50:06; 004;  31,28;   42,6;    449;      0;       ;       ;       ;       ;       ;        
23/06/2024; 05:51:06; 004;  31,26;   42,6;    449;      0;       ;       ;       ;       ;       ;        
23/06/2024; 05:52:06; 004;  31,28;   42,7;    448;      0;       ;       ;       ;       ;       ;        
23/06/2024; 05:53:06; 004;  31,26;   42,7;    449;      0;       ;       ;       ;       ;       ;        
23/06/2024; 05:54:06; 004;  31,25;   42,6;    449;      0;       ;       ;       ;       ;       ;        
23/06/2024; 05:55:06; 004;  31,28;   42,7;    450;      0;       ;       ;       ;       ;       ;        
23/06/2024; 05:56:06; 004;  31,25;   42,7;    449;      0;       ;       ;       ;       ;       ;        
23/06/2024; 05:57:06; 004;  31,29;   42,7;    449;      0;       ;       ;       ;       ;       ;        
23/06/2024; 05:58:06; 004;  31,28;   42,7;    449;      0;       ;       ;       ;       ;       ;        
23/06/2024; 05:59:06; 004;  31,29;   42,7;    448;      0;       ;       ;       ;       ;       ;        
23/06/2024; 06:00:06; 004;  31,25;   42,7;    449;      0;       ;       ;       ;       ;       ;        
23/06/2024; 06:01:06; 004;  31,28;   42,7;    450;      0;       ;       ;       ;       ;       ;        
23/06/2024; 06:02:06; 004;  31,26;   42,7;    452;      0;       ;       ;       ;       ;       ;        
23/06/2024; 06:03:07; 004;  31,26;   42,7;    452;      0;       ;       ;       ;       ;       ;        
23/06/2024; 06:04:06; 004;  31,25;   42,7;    452;      0;       ;       ;       ;       ;       ;        
23/06/2024; 06:05:06; 004;  31,28;   42,7;    450;      0;       ;       ;       ;       ;       ;        
23/06/2024; 06:06:06; 004;  31,28;   42,6;    450;      0;       ;       ;       ;       ;       ;        
23/06/2024; 06:07:06; 004;  31,28;   42,6;    451;      0;       ;       ;       ;       ;       ;        
23/06/2024; 06:08:06; 004;  31,28;   42,7;    450;      0;       ;       ;       ;       ;       ;        
23/06/2024; 06:09:06; 004;  31,25;   42,7;    451;      0;       ;       ;       ;       ;       ;        
23/06/2024; 06:10:06; 004;  31,25;   42,6;    451;      0;       ;       ;       ;       ;       ;        
23/06/2024; 06:11:06; 004;  31,28;   42,7;    451;      0;       ;       ;       ;       ;       ;        
23/06/2024; 06:12:06; 004;  31,25;   42,7;    451;      0;       ;       ;       ;       ;       ;        
23/06/2024; 06:13:06; 004;  31,25;   42,6;    452;      0;       ;       ;       ;       ;       ;        
23/06/2024; 06:14:06; 004;  31,25;   42,7;    452;      0;       ;       ;       ;       ;       ;        
23/06/2024; 06:15:06; 004;  31,25;   42,7;    452;      0;       ;       ;       ;       ;       ;        
23/06/2024; 06:16:06; 004;  31,28;   42,6;    452;      0;       ;       ;       ;       ;       ;        
23/06/2024; 06:17:06; 004;  31,29;   42,7;    452;      0;       ;       ;       ;       ;       ;        
23/06/2024; 06:18:06; 004;  31,28;   42,7;    452;      0;       ;       ;       ;       ;       ;        
23/06/2024; 06:19:06; 004;  31,28;   42,6;    452;      0;       ;       ;       ;       ;       ;        
23/06/2024; 06:20:06; 004;  31,28;   42,7;    453;      0;       ;       ;       ;       ;       ;        
23/06/2024; 06:21:06; 004;  31,28;   42,6;    453;      0;       ;       ;       ;       ;       ;        
23/06/2024; 06:22:06; 004;  31,26;   42,7;    455;      0;       ;       ;       ;       ;       ;        
23/06/2024; 06:23:06; 004;  31,26;   42,7;    454;      0;       ;       ;       ;       ;       ;        
23/06/2024; 06:24:06; 004;  31,25;   42,7;    453;      0;       ;       ;       ;       ;       ;        
23/06/2024; 06:25:06; 004;  31,26;   42,7;    453;      0;       ;       ;       ;       ;       ;        
23/06/2024; 06:26:06; 004;  31,28;   42,7;    452;      0;       ;       ;       ;       ;       ;        
23/06/2024; 06:27:06; 004;  31,25;   42,8;    453;      0;       ;       ;       ;       ;       ;        
23/06/2024; 06:28:06; 004;  31,25;   42,6;    453;      0;       ;       ;       ;       ;       ;        
23/06/2024; 06:29:06; 004;  31,25;   42,7;    453;      0;       ;       ;       ;       ;       ;        
23/06/2024; 06:30:06; 004;  31,25;   42,7;    453;      0;       ;       ;       ;       ;       ;        
23/06/2024; 06:31:06; 004;  31,25;   42,7;    453;      0;       ;       ;       ;       ;       ;        
23/06/2024; 06:32:06; 004;  31,24;   42,7;    454;      0;       ;       ;       ;       ;       ;        
23/06/2024; 06:33:06; 004;  31,24;   42,7;    453;      0;       ;       ;       ;       ;       ;        
23/06/2024; 06:34:06; 004;  31,24;   42,7;    453;      0;       ;       ;       ;       ;       ;        
23/06/2024; 06:35:06; 004;  31,24;   42,7;    455;      0;       ;       ;       ;       ;       ;        
23/06/2024; 06:36:06; 004;  31,21;   42,7;    453;      0;       ;       ;       ;       ;       ;        
23/06/2024; 06:37:06; 004;  31,22;   42,7;    452;      0;       ;       ;       ;       ;       ;        
23/06/2024; 06:38:06; 004;  31,22;   42,7;    451;      0;       ;       ;       ;       ;       ;        
23/06/2024; 06:39:06; 004;  31,24;   42,7;    452;      0;       ;       ;       ;       ;       ;        
23/06/2024; 06:40:06; 004;  31,24;   42,7;    453;      0;       ;       ;       ;       ;       ;        
23/06/2024; 06:41:06; 004;  31,22;   42,7;    453;      0;       ;       ;       ;       ;       ;        
23/06/2024; 06:42:06; 004;  31,25;   42,7;    452;      0;       ;       ;       ;       ;       ;        
23/06/2024; 06:43:06; 004;  31,22;   42,7;    453;      0;       ;       ;       ;       ;       ;        
23/06/2024; 06:44:06; 004;  31,24;   42,7;    452;      0;       ;       ;       ;       ;       ;        
23/06/2024; 06:45:06; 004;  31,24;   42,7;    452;      0;       ;       ;       ;       ;       ;        
23/06/2024; 06:46:06; 004;  31,22;   42,7;    453;      0;       ;       ;       ;       ;       ;        
23/06/2024; 06:47:06; 004;  31,24;   42,7;    454;      0;       ;       ;       ;       ;       ;        
23/06/2024; 06:48:06; 004;  31,22;   42,7;    453;      0;       ;       ;       ;       ;       ;        
23/06/2024; 06:49:06; 004;  31,21;   42,7;    454;      0;       ;       ;       ;       ;       ;        
23/06/2024; 06:50:06; 004;  31,24;   42,7;    455;      0;       ;       ;       ;       ;       ;        
23/06/2024; 06:51:06; 004;  31,22;   42,7;    456;      0;       ;       ;       ;       ;       ;        
23/06/2024; 06:52:06; 004;  31,24;   42,7;    457;      0;       ;       ;       ;       ;       ;        
23/06/2024; 06:53:06; 004;  31,22;   42,7;    456;      0;       ;       ;       ;       ;       ;        
23/06/2024; 06:54:06; 004;  31,20;   42,8;    455;      0;       ;       ;       ;       ;       ;        
23/06/2024; 06:55:06; 004;  31,21;   42,7;    455;      0;       ;       ;       ;       ;       ;        
23/06/2024; 06:56:06; 004;  31,21;   42,7;    454;      0;       ;       ;       ;       ;       ;        
23/06/2024; 06:57:06; 004;  31,21;   42,8;    454;      0;       ;       ;       ;       ;       ;        
23/06/2024; 06:58:06; 004;  31,21;   42,7;    453;      0;       ;       ;       ;       ;       ;        
23/06/2024; 06:59:06; 004;  31,18;   42,7;    455;      0;       ;       ;       ;       ;       ;        
23/06/2024; 07:00:06; 004;  31,20;   42,8;    455;      0;       ;       ;       ;       ;       ;        
23/06/2024; 07:01:06; 004;  31,22;   42,7;    454;      0;       ;       ;       ;       ;       ;        
23/06/2024; 07:02:06; 004;  31,22;   42,8;    455;      0;       ;       ;       ;       ;       ;        
23/06/2024; 07:03:06; 004;  31,20;   42,8;    454;      0;       ;       ;       ;       ;       ;        
23/06/2024; 07:04:06; 004;  31,21;   42,7;    454;      0;       ;       ;       ;       ;       ;        
23/06/2024; 07:05:06; 004;  31,21;   42,8;    456;      0;       ;       ;       ;       ;       ;        
23/06/2024; 07:06:06; 004;  31,18;   42,8;    456;      0;       ;       ;       ;       ;       ;        
23/06/2024; 07:07:06; 004;  31,22;   42,7;    456;      0;       ;       ;       ;       ;       ;        
23/06/2024; 07:08:06; 004;  31,20;   42,8;    457;      0;       ;       ;       ;       ;       ;        
23/06/2024; 07:09:06; 004;  31,22;   42,7;    459;      0;       ;       ;       ;       ;       ;        
23/06/2024; 07:10:06; 004;  31,21;   42,7;    455;      0;       ;       ;       ;       ;       ;        
23/06/2024; 07:11:06; 004;  31,20;   42,8;    456;      0;       ;       ;       ;       ;       ;        
23/06/2024; 07:12:06; 004;  31,18;   42,8;    456;      0;       ;       ;       ;       ;       ;        
23/06/2024; 07:13:06; 004;  31,18;   42,8;    456;      0;       ;       ;       ;       ;       ;        
23/06/2024; 07:14:06; 004;  31,18;   42,8;    456;      0;       ;       ;       ;       ;       ;        
23/06/2024; 07:15:06; 004;  31,18;   42,8;    456;      0;       ;       ;       ;       ;       ;        
23/06/2024; 07:16:06; 004;  31,21;   42,8;    454;      0;       ;       ;       ;       ;       ;        
23/06/2024; 07:17:06; 004;  31,18;   42,8;    455;      0;       ;       ;       ;       ;       ;        
23/06/2024; 07:18:06; 004;  31,17;   42,8;    456;      0;       ;       ;       ;       ;       ;        
23/06/2024; 07:19:06; 004;  31,20;   42,8;    457;      0;       ;       ;       ;       ;       ;        
23/06/2024; 07:20:06; 004;  31,17;   42,8;    454;      0;       ;       ;       ;       ;       ;        
23/06/2024; 07:21:06; 004;  31,17;   42,8;    454;      0;       ;       ;       ;       ;       ;        
23/06/2024; 07:22:06; 004;  31,17;   42,8;    456;      0;       ;       ;       ;       ;       ;        
23/06/2024; 07:23:06; 004;  31,17;   42,8;    457;      0;       ;       ;       ;       ;       ;        
23/06/2024; 07:24:06; 004;  31,18;   42,8;    456;      0;       ;       ;       ;       ;       ;        
23/06/2024; 07:25:06; 004;  31,17;   42,8;    456;      0;       ;       ;       ;       ;       ;        
23/06/2024; 07:26:06; 004;  31,17;   42,8;    456;      0;       ;       ;       ;       ;       ;        
23/06/2024; 07:27:06; 004;  31,17;   42,8;    456;      0;       ;       ;       ;       ;       ;        
23/06/2024; 07:28:06; 004;  31,14;   42,8;    456;      0;       ;       ;       ;       ;       ;        
23/06/2024; 07:29:06; 004;  31,17;   42,8;    456;      0;       ;       ;       ;       ;       ;        
23/06/2024; 07:30:06; 004;  31,18;   42,8;    457;      0;       ;       ;       ;       ;       ;        
23/06/2024; 07:31:06; 004;  31,17;   42,8;    454;      0;       ;       ;       ;       ;       ;        
23/06/2024; 07:32:06; 004;  31,14;   42,8;    455;      0;       ;       ;       ;       ;       ;        
23/06/2024; 07:33:06; 004;  31,15;   42,8;    457;      0;       ;       ;       ;       ;       ;        
23/06/2024; 07:34:06; 004;  31,17;   42,8;    457;      0;       ;       ;       ;       ;       ;        
23/06/2024; 07:35:06; 004;  31,15;   42,8;    455;      0;       ;       ;       ;       ;       ;        
23/06/2024; 07:36:06; 004;  31,14;   42,8;    456;      0;       ;       ;       ;       ;       ;        
23/06/2024; 07:37:06; 004;  31,14;   42,8;    456;      0;       ;       ;       ;       ;       ;        
23/06/2024; 07:38:06; 004;  31,15;   42,8;    456;      0;       ;       ;       ;       ;       ;        
23/06/2024; 07:39:06; 004;  31,17;   42,8;    457;      0;       ;       ;       ;       ;       ;        
23/06/2024; 07:40:06; 004;  31,15;   42,8;    455;      0;       ;       ;       ;       ;       ;        
23/06/2024; 07:41:06; 004;  31,14;   42,9;    455;      0;       ;       ;       ;       ;       ;        
23/06/2024; 07:42:06; 004;  31,15;   42,8;    455;      0;       ;       ;       ;       ;       ;        
23/06/2024; 07:43:06; 004;  31,13;   42,9;    455;      0;       ;       ;       ;       ;       ;        
23/06/2024; 07:44:06; 004;  31,13;   42,8;    456;      0;       ;       ;       ;       ;       ;        
23/06/2024; 07:45:06; 004;  31,14;   42,9;    455;      0;       ;       ;       ;       ;       ;        
23/06/2024; 07:46:06; 004;  31,14;   42,8;    457;      0;       ;       ;       ;       ;       ;        
23/06/2024; 07:47:06; 004;  31,11;   42,8;    455;      0;       ;       ;       ;       ;       ;        
23/06/2024; 07:48:06; 004;  31,13;   42,9;    457;      0;       ;       ;       ;       ;       ;        
23/06/2024; 07:49:06; 004;  31,14;   42,8;    458;      0;       ;       ;       ;       ;       ;        
23/06/2024; 07:50:06; 004;  31,15;   42,8;    457;      0;       ;       ;       ;       ;       ;        
23/06/2024; 07:51:06; 004;  31,14;   42,8;    455;      0;       ;       ;       ;       ;       ;        
23/06/2024; 07:52:06; 004;  31,13;   42,9;    454;      0;       ;       ;       ;       ;       ;        
23/06/2024; 07:53:06; 004;  31,14;   42,8;    455;      0;       ;       ;       ;       ;       ;        
23/06/2024; 07:54:06; 004;  31,14;   42,8;    458;      0;       ;       ;       ;       ;       ;        
23/06/2024; 07:55:06; 004;  31,11;   42,8;    458;      0;       ;       ;       ;       ;       ;        
23/06/2024; 07:56:06; 004;  31,11;   42,9;    458;      0;       ;       ;       ;       ;       ;        
23/06/2024; 07:57:06; 004;  31,11;   42,8;    457;      0;       ;       ;       ;       ;       ;        
23/06/2024; 07:58:06; 004;  31,11;   42,9;    456;      0;       ;       ;       ;       ;       ;        
23/06/2024; 07:59:06; 004;  31,14;   42,9;    456;      0;       ;       ;       ;       ;       ;        
23/06/2024; 08:00:06; 004;  31,11;   42,9;    457;      0;       ;       ;       ;       ;       ;        
23/06/2024; 08:01:06; 004;  31,11;   42,9;    458;      0;       ;       ;       ;       ;       ;        
23/06/2024; 08:02:06; 004;  31,13;   42,9;    458;      0;       ;       ;       ;       ;       ;        
23/06/2024; 08:03:06; 004;  31,13;   42,9;    457;      0;       ;       ;       ;       ;       ;        
23/06/2024; 08:04:06; 004;  31,13;   42,9;    457;      0;       ;       ;       ;       ;       ;        
23/06/2024; 08:05:06; 004;  31,11;   42,9;    457;      0;       ;       ;       ;       ;       ;        
23/06/2024; 08:06:06; 004;  31,13;   42,9;    457;      0;       ;       ;       ;       ;       ;        
23/06/2024; 08:07:06; 004;  31,13;   42,8;    457;      0;       ;       ;       ;       ;       ;        
23/06/2024; 08:08:07; 004;  31,10;   42,9;    458;      0;       ;       ;       ;       ;       ;        
23/06/2024; 08:09:06; 004;  31,11;   42,9;    458;      0;       ;       ;       ;       ;       ;        
23/06/2024; 08:10:06; 004;  31,10;   42,9;    459;      0;       ;       ;       ;       ;       ;        
23/06/2024; 08:11:06; 004;  31,10;   42,9;    458;      0;       ;       ;       ;       ;       ;        
23/06/2024; 08:12:06; 004;  31,08;   42,9;    456;      0;       ;       ;       ;       ;       ;        
23/06/2024; 08:13:06; 004;  31,10;   43,0;    458;      0;       ;       ;       ;       ;       ;        
23/06/2024; 08:14:06; 004;  31,10;   42,9;    458;      0;       ;       ;       ;       ;       ;        
23/06/2024; 08:15:06; 004;  31,10;   42,9;    458;      0;       ;       ;       ;       ;       ;        
23/06/2024; 08:16:06; 004;  31,07;   43,0;    459;      0;       ;       ;       ;       ;       ;        
23/06/2024; 08:17:00;    ;       ;       ;       ;       ;       ;       ;       ;       ;       ;       
23/06/2024; 08:18:06; 004;  31,08;   42,9;    459;      0;       ;       ;       ;       ;       ;        
23/06/2024; 08:19:06; 004;  31,08;   42,9;    459;      0;       ;       ;       ;       ;       ;        
23/06/2024; 08:20:07; 004;  31,07;   42,9;    459;      0;       ;       ;       ;       ;       ;        
23/06/2024; 08:21:06; 004;  31,10;   42,9;    458;      0;       ;       ;       ;       ;       ;        
23/06/2024; 08:22:06; 004;  31,10;   42,9;    458;      0;       ;       ;       ;       ;       ;        
23/06/2024; 08:23:06; 004;  31,07;   43,0;    458;      0;       ;       ;       ;       ;       ;        
23/06/2024; 08:24:06; 004;  31,07;   43,0;    458;      0;       ;       ;       ;       ;       ;        
23/06/2024; 08:25:06; 004;  31,10;   42,9;    458;      0;       ;       ;       ;       ;       ;        
23/06/2024; 08:26:06; 004;  31,07;   42,9;    458;      0;       ;       ;       ;       ;       ;        
23/06/2024; 08:27:06; 004;  31,10;   42,9;    458;      0;       ;       ;       ;       ;       ;        
23/06/2024; 08:28:06; 004;  31,07;   42,9;    458;      0;       ;       ;       ;       ;       ;        
23/06/2024; 08:29:06; 004;  31,10;   42,9;    459;      0;       ;       ;       ;       ;       ;        
23/06/2024; 08:30:06; 004;  31,08;   42,9;    459;      0;       ;       ;       ;       ;       ;        
23/06/2024; 08:31:06; 004;  31,05;   43,0;    458;      0;       ;       ;       ;       ;       ;        
23/06/2024; 08:32:06; 004;  31,10;   42,9;    458;      0;       ;       ;       ;       ;       ;        
23/06/2024; 08:33:06; 004;  31,10;   42,9;    459;      0;       ;       ;       ;       ;       ;        
23/06/2024; 08:34:06; 004;  31,08;   42,9;    459;      0;       ;       ;       ;       ;       ;        
23/06/2024; 08:35:06; 004;  31,07;   43,0;    460;      0;       ;       ;       ;       ;       ;        
23/06/2024; 08:36:06; 004;  31,10;   42,9;    459;      0;       ;       ;       ;       ;       ;        
23/06/2024; 08:37:06; 004;  31,08;   42,9;    459;      0;       ;       ;       ;       ;       ;        
23/06/2024; 08:38:06; 004;  31,05;   43,0;    460;      0;       ;       ;       ;       ;       ;        
23/06/2024; 08:39:07; 004;  31,07;   42,9;    460;      0;       ;       ;       ;       ;       ;        
23/06/2024; 08:40:07; 004;  31,07;   43,0;    460;      0;       ;       ;       ;       ;       ;        
23/06/2024; 08:41:06; 004;  31,08;   42,9;    461;      0;       ;       ;       ;       ;       ;        
23/06/2024; 08:42:07; 004;  31,07;   43,0;    460;      0;       ;       ;       ;       ;       ;        
23/06/2024; 08:43:07; 004;  31,07;   43,0;    460;      0;       ;       ;       ;       ;       ;        
23/06/2024; 08:44:07; 004;  31,05;   42,9;    460;      0;       ;       ;       ;       ;       ;        
23/06/2024; 08:45:07; 004;  31,07;   43,0;    460;      0;       ;       ;       ;       ;       ;        
23/06/2024; 08:46:07; 004;  31,05;   43,0;    461;      0;       ;       ;       ;       ;       ;        
23/06/2024; 08:47:07; 004;  31,07;   42,9;    459;      0;       ;       ;       ;       ;       ;        
23/06/2024; 08:48:07; 004;  31,04;   42,9;    460;      0;       ;       ;       ;       ;       ;        
23/06/2024; 08:49:07; 004;  31,05;   43,0;    460;      0;       ;       ;       ;       ;       ;        
23/06/2024; 08:50:07; 004;  31,07;   42,9;    461;      0;       ;       ;       ;       ;       ;        
23/06/2024; 08:51:07; 004;  31,05;   43,0;    460;      0;       ;       ;       ;       ;       ;        
23/06/2024; 08:52:07; 004;  31,07;   43,0;    460;      0;       ;       ;       ;       ;       ;        
23/06/2024; 08:53:07; 004;  31,07;   42,9;    461;      0;       ;       ;       ;       ;       ;        
23/06/2024; 08:54:07; 004;  31,07;   43,0;    460;      0;       ;       ;       ;       ;       ;        
23/06/2024; 08:55:07; 004;  31,07;   43,0;    460;      0;       ;       ;       ;       ;       ;        
23/06/2024; 08:56:07; 004;  31,07;   43,0;    460;      0;       ;       ;       ;       ;       ;        
23/06/2024; 08:57:07; 004;  31,05;   43,0;    460;      0;       ;       ;       ;       ;       ;        
23/06/2024; 08:58:07; 004;  31,03;   43,0;    460;      0;       ;       ;       ;       ;       ;        
23/06/2024; 08:59:07; 004;  31,04;   43,0;    462;      0;       ;       ;       ;       ;       ;        
23/06/2024; 09:00:07; 004;  31,03;   43,0;    461;      0;       ;       ;       ;       ;       ;        
23/06/2024; 09:01:07; 004;  31,07;   43,0;    460;      0;       ;       ;       ;       ;       ;        
23/06/2024; 09:02:07; 004;  31,05;   43,0;    459;      0;       ;       ;       ;       ;       ;        
23/06/2024; 09:03:07; 004;  31,04;   43,0;    460;      0;       ;       ;       ;       ;       ;        
23/06/2024; 09:04:07; 004;  31,05;   43,0;    460;      0;       ;       ;       ;       ;       ;        
23/06/2024; 09:05:07; 004;  31,05;   43,0;    459;      0;       ;       ;       ;       ;       ;        
23/06/2024; 09:06:07; 004;  31,05;   43,0;    460;      0;       ;       ;       ;       ;       ;        
23/06/2024; 09:07:07; 004;  31,03;   43,0;    461;      0;       ;       ;       ;       ;       ;        
23/06/2024; 09:08:07; 004;  31,04;   43,0;    462;      0;       ;       ;       ;       ;       ;        
23/06/2024; 09:09:07; 004;  31,03;   43,0;    461;      0;       ;       ;       ;       ;       ;        
23/06/2024; 09:10:07; 004;  31,03;   43,0;    460;      0;       ;       ;       ;       ;       ;        
23/06/2024; 09:11:07; 004;  31,04;   43,0;    461;      0;       ;       ;       ;       ;       ;        
23/06/2024; 09:12:07; 004;  31,00;   43,0;    460;      0;       ;       ;       ;       ;       ;        
23/06/2024; 09:13:07; 004;  31,03;   43,0;    460;      0;       ;       ;       ;       ;       ;        
23/06/2024; 09:14:07; 004;  31,04;   43,0;    460;      0;       ;       ;       ;       ;       ;        
23/06/2024; 09:15:07; 004;  31,01;   43,0;    461;      0;       ;       ;       ;       ;       ;        
23/06/2024; 09:16:07; 004;  31,03;   43,0;    460;      0;       ;       ;       ;       ;       ;        
23/06/2024; 09:17:07; 004;  31,01;   43,0;    460;      0;       ;       ;       ;       ;       ;        
23/06/2024; 09:18:07; 004;  31,04;   43,0;    461;      0;       ;       ;       ;       ;       ;        
23/06/2024; 09:19:07; 004;  31,01;   43,0;    461;      0;       ;       ;       ;       ;       ;        
23/06/2024; 09:20:07; 004;  31,01;   43,0;    461;      0;       ;       ;       ;       ;       ;        
23/06/2024; 09:21:07; 004;  31,03;   43,0;    461;      0;       ;       ;       ;       ;       ;        
23/06/2024; 09:22:07; 004;  31,01;   43,0;    461;      0;       ;       ;       ;       ;       ;        
23/06/2024; 09:23:07; 004;  31,03;   43,0;    461;      0;       ;       ;       ;       ;       ;        
23/06/2024; 09:24:07; 004;  31,03;   43,0;    461;      0;       ;       ;       ;       ;       ;        
23/06/2024; 09:25:07; 004;  31,00;   43,0;    462;      0;       ;       ;       ;       ;       ;        
23/06/2024; 09:26:07; 004;  31,03;   43,0;    461;      0;       ;       ;       ;       ;       ;        
23/06/2024; 09:27:07; 004;  31,01;   43,0;    462;      0;       ;       ;       ;       ;       ;        
23/06/2024; 09:28:07; 004;  30,97;   43,1;    462;      0;       ;       ;       ;       ;       ;        
23/06/2024; 09:29:07; 004;  31,00;   43,1;    462;      0;       ;       ;       ;       ;       ;        
23/06/2024; 09:30:07; 004;  30,98;   43,1;    461;      0;       ;       ;       ;       ;       ;        
23/06/2024; 09:31:07; 004;  31,00;   43,0;    463;      0;       ;       ;       ;       ;       ;        
23/06/2024; 09:32:07; 004;  30,97;   43,0;    462;      0;       ;       ;       ;       ;       ;        
23/06/2024; 09:33:07; 004;  31,01;   43,0;    463;      0;       ;       ;       ;       ;       ;        
23/06/2024; 09:34:07; 004;  31,03;   43,1;    462;      0;       ;       ;       ;       ;       ;        
23/06/2024; 09:35:07; 004;  31,01;   43,0;    461;      0;       ;       ;       ;       ;       ;        
23/06/2024; 09:36:07; 004;  30,98;   43,1;    462;      0;       ;       ;       ;       ;       ;        
23/06/2024; 09:37:07; 004;  31,00;   43,1;    462;      0;       ;       ;       ;       ;       ;        
23/06/2024; 09:38:07; 004;  30,98;   43,1;    462;      0;       ;       ;       ;       ;       ;        
23/06/2024; 09:39:07; 004;  30,97;   43,1;    462;      0;       ;       ;       ;       ;       ;        
23/06/2024; 09:40:07; 004;  31,01;   43,1;    462;      0;       ;       ;       ;       ;       ;        
23/06/2024; 09:41:07; 004;  31,00;   43,1;    461;      0;       ;       ;       ;       ;       ;        
23/06/2024; 09:42:07; 004;  30,97;   43,0;    461;      0;       ;       ;       ;       ;       ;        
23/06/2024; 09:43:07; 004;  30,97;   43,1;    461;      0;       ;       ;       ;       ;       ;        
23/06/2024; 09:44:07; 004;  30,97;   43,1;    461;      0;       ;       ;       ;       ;       ;        
23/06/2024; 09:45:07; 004;  31,00;   43,1;    459;      0;       ;       ;       ;       ;       ;        
23/06/2024; 09:46:07; 004;  30,97;   43,0;    461;      0;       ;       ;       ;       ;       ;        
23/06/2024; 09:47:07; 004;  30,95;   43,1;    460;      0;       ;       ;       ;       ;       ;        
23/06/2024; 09:48:07; 004;  30,97;   43,1;    459;      0;       ;       ;       ;       ;       ;        
23/06/2024; 09:49:07; 004;  30,94;   43,1;    460;      0;       ;       ;       ;       ;       ;        
23/06/2024; 09:50:07; 004;  30,94;   43,1;    461;      0;       ;       ;       ;       ;       ;        
23/06/2024; 09:51:07; 004;  30,95;   43,1;    460;      0;       ;       ;       ;       ;       ;        
23/06/2024; 09:52:07; 004;  30,95;   43,1;    459;      0;       ;       ;       ;       ;       ;        
23/06/2024; 09:53:07; 004;  30,97;   43,1;    459;      0;       ;       ;       ;       ;       ;        
23/06/2024; 09:54:07; 004;  30,94;   43,1;    459;      0;       ;       ;       ;       ;       ;        
23/06/2024; 09:55:07; 004;  30,95;   43,1;    460;      0;       ;       ;       ;       ;       ;        
23/06/2024; 09:56:07; 004;  30,94;   43,2;    459;      0;       ;       ;       ;       ;       ;        
23/06/2024; 09:57:07; 004;  30,93;   43,1;    459;      0;       ;       ;       ;       ;       ;        
23/06/2024; 09:58:07; 004;  30,95;   43,2;    459;      0;       ;       ;       ;       ;       ;        
23/06/2024; 09:59:07; 004;  30,97;   43,1;    459;      0;       ;       ;       ;       ;       ;        
23/06/2024; 10:00:07; 004;  30,94;   43,1;    458;      0;       ;       ;       ;       ;       ;        
23/06/2024; 10:01:07; 004;  30,93;   43,2;    458;      0;       ;       ;       ;       ;       ;        
23/06/2024; 10:02:07; 004;  30,94;   43,1;    459;      0;       ;       ;       ;       ;       ;        
23/06/2024; 10:03:07; 004;  30,94;   43,1;    457;      0;       ;       ;       ;       ;       ;        
23/06/2024; 10:04:07; 004;  30,93;   43,1;    457;      0;       ;       ;       ;       ;       ;        
23/06/2024; 10:05:07; 004;  30,94;   43,2;    457;      0;       ;       ;       ;       ;       ;        
23/06/2024; 10:06:07; 004;  30,94;   43,1;    456;      0;       ;       ;       ;       ;       ;        
23/06/2024; 10:07:07; 004;  30,94;   43,2;    459;      0;       ;       ;       ;       ;       ;        
23/06/2024; 10:08:07; 004;  30,94;   43,1;    459;      0;       ;       ;       ;       ;       ;        
23/06/2024; 10:09:07; 004;  30,93;   43,2;    459;      0;       ;       ;       ;       ;       ;        
23/06/2024; 10:10:07; 004;  30,90;   43,2;    458;      0;       ;       ;       ;       ;       ;        
23/06/2024; 10:11:07; 004;  30,95;   43,2;    458;      0;       ;       ;       ;       ;       ;        
23/06/2024; 10:12:07; 004;  30,90;   43,2;    458;      0;       ;       ;       ;       ;       ;        
23/06/2024; 10:13:07; 004;  30,90;   43,1;    458;      0;       ;       ;       ;       ;       ;        
23/06/2024; 10:14:07; 004;  30,93;   43,2;    458;      0;       ;       ;       ;       ;       ;        
23/06/2024; 10:15:07; 004;  30,91;   43,2;    458;      0;       ;       ;       ;       ;       ;        
23/06/2024; 10:16:07; 004;  30,93;   43,2;    458;      0;       ;       ;       ;       ;       ;        
23/06/2024; 10:17:07; 004;  30,93;   43,2;    459;      0;       ;       ;       ;       ;       ;        
23/06/2024; 10:18:07; 004;  30,93;   43,1;    459;      0;       ;       ;       ;       ;       ;        
23/06/2024; 10:19:07; 004;  30,93;   43,1;    460;      0;       ;       ;       ;       ;       ;        
23/06/2024; 10:20:07; 004;  30,98;   43,1;    459;      0;       ;       ;       ;       ;       ;        
23/06/2024; 10:21:07; 004;  30,95;   43,1;    460;      0;       ;       ;       ;       ;       ;        
23/06/2024; 10:22:07; 004;  30,95;   43,1;    458;      0;       ;       ;       ;       ;       ;        
23/06/2024; 10:23:07; 004;  30,95;   43,1;    458;      0;       ;       ;       ;       ;       ;        
23/06/2024; 10:24:07; 004;  30,95;   43,2;    458;      0;       ;       ;       ;       ;       ;        
23/06/2024; 10:25:07; 004;  30,94;   43,1;    459;      0;       ;       ;       ;       ;       ;        
23/06/2024; 10:26:07; 004;  30,93;   43,1;    458;      0;       ;       ;       ;       ;       ;        
23/06/2024; 10:27:07; 004;  30,93;   43,1;    458;      0;       ;       ;       ;       ;       ;        
23/06/2024; 10:28:07; 004;  30,91;   43,1;    458;      0;       ;       ;       ;       ;       ;        
23/06/2024; 10:29:07; 004;  30,94;   43,2;    458;      0;       ;       ;       ;       ;       ;        
23/06/2024; 10:30:07; 004;  30,94;   43,2;    456;      0;       ;       ;       ;       ;       ;        
23/06/2024; 10:31:07; 004;  30,93;   43,2;    455;      0;       ;       ;       ;       ;       ;        
23/06/2024; 10:32:07; 004;  30,94;   43,2;    456;      0;       ;       ;       ;       ;       ;        
23/06/2024; 10:33:07; 004;  30,91;   43,1;    458;      0;       ;       ;       ;       ;       ;        
23/06/2024; 10:34:07; 004;  30,95;   43,1;    455;      0;       ;       ;       ;       ;       ;        
23/06/2024; 10:35:07; 004;  30,94;   43,2;    455;      0;       ;       ;       ;       ;       ;        
23/06/2024; 10:36:07; 004;  30,94;   43,2;    456;      0;       ;       ;       ;       ;       ;        
23/06/2024; 10:37:07; 004;  30,94;   43,2;    458;      0;       ;       ;       ;       ;       ;        
23/06/2024; 10:38:07; 004;  30,93;   43,2;    457;      0;       ;       ;       ;       ;       ;        
23/06/2024; 10:39:07; 004;  30,94;   43,1;    458;      0;       ;       ;       ;       ;       ;        
23/06/2024; 10:40:07; 004;  30,94;   43,2;    457;      0;       ;       ;       ;       ;       ;        
23/06/2024; 10:41:07; 004;  30,94;   43,1;    456;      0;       ;       ;       ;       ;       ;        
23/06/2024; 10:42:07; 004;  30,95;   43,2;    457;      0;       ;       ;       ;       ;       ;        
23/06/2024; 10:43:07; 004;  30,94;   43,2;    456;      0;       ;       ;       ;       ;       ;        
23/06/2024; 10:44:07; 004;  30,94;   43,2;    457;      0;       ;       ;       ;       ;       ;        
23/06/2024; 10:45:07; 004;  30,91;   43,2;    458;      0;       ;       ;       ;       ;       ;        
23/06/2024; 10:46:07; 004;  30,93;   43,2;    458;      0;       ;       ;       ;       ;       ;        
23/06/2024; 10:47:07; 004;  30,94;   43,2;    457;      0;       ;       ;       ;       ;       ;        
23/06/2024; 10:48:07; 004;  30,95;   43,2;    457;      0;       ;       ;       ;       ;       ;        
23/06/2024; 10:49:07; 004;  30,93;   43,1;    458;      0;       ;       ;       ;       ;       ;        
23/06/2024; 10:50:07; 004;  30,94;   43,2;    459;      0;       ;       ;       ;       ;       ;        
23/06/2024; 10:51:07; 004;  30,94;   43,2;    456;      0;       ;       ;       ;       ;       ;        
23/06/2024; 10:52:07; 004;  30,94;   43,2;    459;      0;       ;       ;       ;       ;       ;        
23/06/2024; 10:53:07; 004;  30,94;   43,2;    458;      0;       ;       ;       ;       ;       ;        
23/06/2024; 10:54:07; 004;  30,94;   43,2;    458;      0;       ;       ;       ;       ;       ;        
23/06/2024; 10:55:07; 004;  30,94;   43,2;    457;      0;       ;       ;       ;       ;       ;        
23/06/2024; 10:56:07; 004;  30,93;   43,2;    456;      0;       ;       ;       ;       ;       ;        
23/06/2024; 10:57:07; 004;  30,94;   43,2;    458;      0;       ;       ;       ;       ;       ;        
23/06/2024; 10:58:07; 004;  30,94;   43,2;    458;      0;       ;       ;       ;       ;       ;        
23/06/2024; 10:59:07; 004;  30,93;   43,2;    459;      0;       ;       ;       ;       ;       ;        
23/06/2024; 11:00:07; 004;  30,93;   43,2;    459;      0;       ;       ;       ;       ;       ;        
23/06/2024; 11:01:07; 004;  30,93;   43,2;    459;      0;       ;       ;       ;       ;       ;        
23/06/2024; 11:02:07; 004;  30,94;   43,2;    458;      0;       ;       ;       ;       ;       ;        
23/06/2024; 11:03:07; 004;  30,94;   43,2;    457;      0;       ;       ;       ;       ;       ;        
23/06/2024; 11:04:07; 004;  30,93;   43,3;    456;      0;       ;       ;       ;       ;       ;        
23/06/2024; 11:05:07; 004;  30,93;   43,2;    457;      0;       ;       ;       ;       ;       ;        
23/06/2024; 11:06:07; 004;  30,93;   43,3;    456;      0;       ;       ;       ;       ;       ;        
23/06/2024; 11:07:07; 004;  30,93;   43,2;    457;      0;       ;       ;       ;       ;       ;        
23/06/2024; 11:08:07; 004;  30,94;   43,3;    456;      0;       ;       ;       ;       ;       ;        
23/06/2024; 11:09:07; 004;  30,93;   43,3;    455;      0;       ;       ;       ;       ;       ;        
23/06/2024; 11:10:07; 004;  30,95;   43,3;    452;      0;       ;       ;       ;       ;       ;        
23/06/2024; 11:11:07; 004;  30,94;   43,3;    454;      0;       ;       ;       ;       ;       ;        
23/06/2024; 11:12:07; 004;  30,94;   43,2;    457;      0;       ;       ;       ;       ;       ;        
23/06/2024; 11:13:07; 004;  30,91;   43,3;    457;      0;       ;       ;       ;       ;       ;        
23/06/2024; 11:14:07; 004;  30,94;   43,3;    456;      0;       ;       ;       ;       ;       ;        
23/06/2024; 11:15:07; 004;  30,93;   43,3;    456;      0;       ;       ;       ;       ;       ;        
23/06/2024; 11:16:07; 004;  30,95;   43,4;    453;      0;       ;       ;       ;       ;       ;        
23/06/2024; 11:17:07; 004;  30,95;   43,3;    453;      0;       ;       ;       ;       ;       ;        
23/06/2024; 11:18:07; 004;  30,94;   43,3;    455;      0;       ;       ;       ;       ;       ;        
23/06/2024; 11:19:07; 004;  30,93;   43,3;    454;      0;       ;       ;       ;       ;       ;        
23/06/2024; 11:20:07; 004;  30,94;   43,3;    454;      0;       ;       ;       ;       ;       ;        
23/06/2024; 11:21:07; 004;  30,93;   43,4;    454;      0;       ;       ;       ;       ;       ;        
23/06/2024; 11:22:07; 004;  30,94;   43,4;    455;      0;       ;       ;       ;       ;       ;        
23/06/2024; 11:23:07; 004;  30,93;   43,4;    454;      0;       ;       ;       ;       ;       ;        
23/06/2024; 11:24:07; 004;  30,93;   43,3;    455;      0;       ;       ;       ;       ;       ;        
23/06/2024; 11:25:07; 004;  30,91;   43,4;    455;      0;       ;       ;       ;       ;       ;        
23/06/2024; 11:26:07; 004;  30,90;   43,4;    455;      0;       ;       ;       ;       ;       ;        
23/06/2024; 11:27:08; 004;  30,93;   43,4;    455;      0;       ;       ;       ;       ;       ;        
23/06/2024; 11:28:07; 004;  30,94;   43,4;    455;      0;       ;       ;       ;       ;       ;        
23/06/2024; 11:29:07; 004;  30,93;   43,3;    455;      0;       ;       ;       ;       ;       ;        
23/06/2024; 11:30:07; 004;  30,95;   43,3;    454;      0;       ;       ;       ;       ;       ;        
23/06/2024; 11:31:07; 004;  30,93;   43,4;    454;      0;       ;       ;       ;       ;       ;        
23/06/2024; 11:32:07; 004;  30,94;   43,4;    454;      0;       ;       ;       ;       ;       ;        
23/06/2024; 11:33:07; 004;  30,91;   43,3;    455;      0;       ;       ;       ;       ;       ;        
23/06/2024; 11:34:07; 004;  30,93;   43,4;    455;      0;       ;       ;       ;       ;       ;        
23/06/2024; 11:35:07; 004;  30,93;   43,4;    455;      0;       ;       ;       ;       ;       ;        
23/06/2024; 11:36:07; 004;  30,91;   43,4;    456;      0;       ;       ;       ;       ;       ;        
23/06/2024; 11:37:07; 004;  30,94;   43,4;    456;      0;       ;       ;       ;       ;       ;        
23/06/2024; 11:38:08; 004;  30,93;   43,4;    456;      0;       ;       ;       ;       ;       ;        
23/06/2024; 11:39:07; 004;  30,94;   43,4;    455;      0;       ;       ;       ;       ;       ;        
23/06/2024; 11:40:07; 004;  30,91;   43,4;    455;      0;       ;       ;       ;       ;       ;        
23/06/2024; 11:41:07; 004;  30,93;   43,4;    454;      0;       ;       ;       ;       ;       ;        
23/06/2024; 11:42:07; 004;  30,90;   43,4;    455;      0;       ;       ;       ;       ;       ;        
23/06/2024; 11:43:07; 004;  30,90;   43,4;    456;      0;       ;       ;       ;       ;       ;        
23/06/2024; 11:44:07; 004;  30,91;   43,4;    455;      0;       ;       ;       ;       ;       ;        
23/06/2024; 11:45:07; 004;  30,91;   43,4;    455;      0;       ;       ;       ;       ;       ;        
23/06/2024; 11:46:07; 004;  30,91;   43,4;    455;      0;       ;       ;       ;       ;       ;        
23/06/2024; 11:47:07; 004;  30,90;   43,4;    456;      0;       ;       ;       ;       ;       ;        
23/06/2024; 11:48:08; 004;  30,90;   43,4;    454;      0;       ;       ;       ;       ;       ;        
23/06/2024; 11:49:07; 004;  30,90;   43,4;    453;      0;       ;       ;       ;       ;       ;        
23/06/2024; 11:50:08; 004;  30,91;   43,4;    454;      0;       ;       ;       ;       ;       ;        
23/06/2024; 11:51:08; 004;  30,90;   43,4;    455;      0;       ;       ;       ;       ;       ;        
23/06/2024; 11:52:07; 004;  30,91;   43,4;    455;      0;       ;       ;       ;       ;       ;        
23/06/2024; 11:53:07; 004;  30,91;   43,4;    455;      0;       ;       ;       ;       ;       ;        
23/06/2024; 11:54:07; 004;  30,93;   43,4;    455;      0;       ;       ;       ;       ;       ;        
23/06/2024; 11:55:07; 004;  30,91;   43,4;    454;      0;       ;       ;       ;       ;       ;        
23/06/2024; 11:56:07; 004;  30,91;   43,4;    455;      0;       ;       ;       ;       ;       ;        
23/06/2024; 11:57:07; 004;  30,94;   43,4;    456;      0;       ;       ;       ;       ;       ;        
23/06/2024; 11:58:08; 004;  30,93;   43,4;    454;      0;       ;       ;       ;       ;       ;        
23/06/2024; 11:59:08; 004;  30,91;   43,4;    454;      0;       ;       ;       ;       ;       ;        
23/06/2024; 12:00:08; 004;  30,91;   43,4;    454;      0;       ;       ;       ;       ;       ;        
23/06/2024; 12:01:08; 004;  30,91;   43,4;    455;      0;       ;       ;       ;       ;       ;        
23/06/2024; 12:02:08; 004;  30,93;   43,4;    454;      0;       ;       ;       ;       ;       ;        
23/06/2024; 12:03:08; 004;  30,91;   43,4;    454;      0;       ;       ;       ;       ;       ;        
23/06/2024; 12:04:08; 004;  30,91;   43,4;    455;      0;       ;       ;       ;       ;       ;        
23/06/2024; 12:05:08; 004;  30,91;   43,5;    454;      0;       ;       ;       ;       ;       ;        
23/06/2024; 12:06:08; 004;  30,93;   43,4;    454;      0;       ;       ;       ;       ;       ;        
23/06/2024; 12:07:08; 004;  30,94;   43,4;    454;      0;       ;       ;       ;       ;       ;        
23/06/2024; 12:08:08; 004;  30,91;   43,4;    456;      0;       ;       ;       ;       ;       ;        
23/06/2024; 12:09:08; 004;  30,93;   43,5;    456;      0;       ;       ;       ;       ;       ;        
23/06/2024; 12:10:08; 004;  30,90;   43,4;    455;      0;       ;       ;       ;       ;       ;        
23/06/2024; 12:11:08; 004;  30,91;   43,5;    454;      0;       ;       ;       ;       ;       ;        
23/06/2024; 12:12:08; 004;  30,90;   43,5;    454;      0;       ;       ;       ;       ;       ;        
23/06/2024; 12:13:08; 004;  30,93;   43,4;    453;      0;       ;       ;       ;       ;       ;        
23/06/2024; 12:14:08; 004;  30,94;   43,5;    452;      0;       ;       ;       ;       ;       ;        
23/06/2024; 12:15:08; 004;  30,90;   43,4;    452;      0;       ;       ;       ;       ;       ;        
23/06/2024; 12:16:08; 004;  30,93;   43,4;    453;      0;       ;       ;       ;       ;       ;        
23/06/2024; 12:17:08; 004;  30,91;   43,4;    454;      0;       ;       ;       ;       ;       ;        
23/06/2024; 12:18:08; 004;  30,90;   43,5;    453;      0;       ;       ;       ;       ;       ;        
23/06/2024; 12:19:08; 004;  30,90;   43,4;    452;      0;       ;       ;       ;       ;       ;        
23/06/2024; 12:20:08; 004;  30,90;   43,5;    454;      0;       ;       ;       ;       ;       ;        
23/06/2024; 12:21:08; 004;  30,90;   43,4;    454;      0;       ;       ;       ;       ;       ;        
23/06/2024; 12:22:08; 004;  30,95;   43,4;    454;      0;       ;       ;       ;       ;       ;        
23/06/2024; 12:23:08; 004;  30,93;   43,4;    454;      0;       ;       ;       ;       ;       ;        
23/06/2024; 12:24:08; 004;  30,90;   43,5;    454;      0;       ;       ;       ;       ;       ;        
23/06/2024; 12:25:08; 004;  30,91;   43,4;    454;      0;       ;       ;       ;       ;       ;        
23/06/2024; 12:26:08; 004;  30,91;   43,4;    454;      0;       ;       ;       ;       ;       ;        
23/06/2024; 12:27:08; 004;  30,94;   43,5;    453;      0;       ;       ;       ;       ;       ;        
23/06/2024; 12:28:08; 004;  30,93;   43,4;    453;      0;       ;       ;       ;       ;       ;        
23/06/2024; 12:29:08; 004;  30,93;   43,4;    454;      0;       ;       ;       ;       ;       ;        
23/06/2024; 12:30:08; 004;  30,93;   43,4;    454;      0;       ;       ;       ;       ;       ;        
23/06/2024; 12:31:08; 004;  30,91;   43,4;    452;      0;       ;       ;       ;       ;       ;        
23/06/2024; 12:32:08; 004;  30,93;   43,5;    452;      0;       ;       ;       ;       ;       ;        
23/06/2024; 12:33:08; 004;  30,91;   43,4;    454;      0;       ;       ;       ;       ;       ;        
23/06/2024; 12:34:08; 004;  30,97;   43,5;    454;      0;       ;       ;       ;       ;       ;        
23/06/2024; 12:35:08; 004;  30,93;   43,5;    454;      0;       ;       ;       ;       ;       ;        
23/06/2024; 12:36:08; 004;  30,95;   43,5;    451;      0;       ;       ;       ;       ;       ;        
23/06/2024; 12:37:08; 004;  30,93;   43,5;    450;      0;       ;       ;       ;       ;       ;        
23/06/2024; 12:38:08; 004;  30,94;   43,5;    454;      0;       ;       ;       ;       ;       ;        
23/06/2024; 12:39:08; 004;  30,94;   43,5;    454;      0;       ;       ;       ;       ;       ;        
23/06/2024; 12:40:08; 004;  30,94;   43,5;    453;      0;       ;       ;       ;       ;       ;        
23/06/2024; 12:41:08; 004;  30,95;   43,5;    453;      0;       ;       ;       ;       ;       ;        
23/06/2024; 12:42:08; 004;  30,94;   43,5;    453;      0;       ;       ;       ;       ;       ;        
23/06/2024; 12:43:08; 004;  30,94;   43,5;    452;      0;       ;       ;       ;       ;       ;        
23/06/2024; 12:44:08; 004;  30,94;   43,5;    451;      0;       ;       ;       ;       ;       ;        
23/06/2024; 12:45:08; 004;  30,94;   43,6;    451;      0;       ;       ;       ;       ;       ;        
23/06/2024; 12:46:08; 004;  30,95;   43,6;    452;      0;       ;       ;       ;       ;       ;        
23/06/2024; 12:47:08; 004;  30,94;   43,6;    450;      0;       ;       ;       ;       ;       ;        
23/06/2024; 12:48:08; 004;  30,95;   43,6;    451;      0;       ;       ;       ;       ;       ;        
23/06/2024; 12:49:08; 004;  30,95;   43,7;    452;      0;       ;       ;       ;       ;       ;        
23/06/2024; 12:50:08; 004;  30,94;   43,7;    452;      0;       ;       ;       ;       ;       ;        
23/06/2024; 12:51:08; 004;  30,95;   43,7;    451;      0;       ;       ;       ;       ;       ;        
23/06/2024; 12:52:08; 004;  30,94;   43,7;    449;      0;       ;       ;       ;       ;       ;        
23/06/2024; 12:53:08; 004;  30,94;   43,8;    450;      0;       ;       ;       ;       ;       ;        
23/06/2024; 12:54:08; 004;  30,93;   43,8;    449;      0;       ;       ;       ;       ;       ;        
23/06/2024; 12:55:08; 004;  30,95;   43,7;    451;      0;       ;       ;       ;       ;       ;        
23/06/2024; 12:56:08; 004;  30,94;   43,8;    451;      0;       ;       ;       ;       ;       ;        
23/06/2024; 12:57:08; 004;  30,93;   43,7;    449;      0;       ;       ;       ;       ;       ;        
23/06/2024; 12:58:08; 004;  30,95;   43,8;    449;      0;       ;       ;       ;       ;       ;        
23/06/2024; 12:59:08; 004;  30,93;   43,8;    449;      0;       ;       ;       ;       ;       ;        
23/06/2024; 13:00:08; 004;  30,97;   43,8;    449;      0;       ;       ;       ;       ;       ;        
23/06/2024; 13:01:08; 004;  30,95;   43,8;    449;      0;       ;       ;       ;       ;       ;        
23/06/2024; 13:02:08; 004;  30,93;   43,8;    449;      0;       ;       ;       ;       ;       ;        
23/06/2024; 13:03:08; 004;  30,95;   43,8;    451;      0;       ;       ;       ;       ;       ;        
23/06/2024; 13:04:08; 004;  30,97;   43,8;    447;      0;       ;       ;       ;       ;       ;        
23/06/2024; 13:05:08; 004;  30,94;   43,8;    448;      0;       ;       ;       ;       ;       ;        
23/06/2024; 13:06:08; 004;  30,93;   43,9;    451;      0;       ;       ;       ;       ;       ;        
23/06/2024; 13:07:08; 004;  30,94;   43,8;    451;      0;       ;       ;       ;       ;       ;        
23/06/2024; 13:08:08; 004;  30,97;   43,8;    450;      0;       ;       ;       ;       ;       ;        
23/06/2024; 13:09:08; 004;  30,95;   43,9;    447;      0;       ;       ;       ;       ;       ;        
23/06/2024; 13:10:08; 004;  30,97;   43,9;    447;      0;       ;       ;       ;       ;       ;        
23/06/2024; 13:11:08; 004;  30,93;   43,9;    449;      0;       ;       ;       ;       ;       ;        
23/06/2024; 13:12:08; 004;  30,95;   43,9;    449;      0;       ;       ;       ;       ;       ;        
23/06/2024; 13:13:08; 004;  30,94;   43,9;    448;      0;       ;       ;       ;       ;       ;        
23/06/2024; 13:14:08; 004;  30,94;   43,9;    448;      0;       ;       ;       ;       ;       ;        
23/06/2024; 13:15:08; 004;  30,97;   43,9;    447;      0;       ;       ;       ;       ;       ;        
23/06/2024; 13:16:08; 004;  30,94;   43,9;    448;      0;       ;       ;       ;       ;       ;        
23/06/2024; 13:17:08; 004;  30,94;   43,9;    450;      0;       ;       ;       ;       ;       ;        
23/06/2024; 13:18:08; 004;  30,94;   43,9;    450;      0;       ;       ;       ;       ;       ;        
23/06/2024; 13:19:08; 004;  30,95;   43,9;    450;      0;       ;       ;       ;       ;       ;        
23/06/2024; 13:20:08; 004;  30,98;   43,9;    448;      0;       ;       ;       ;       ;       ;        
23/06/2024; 13:21:08; 004;  30,97;   43,9;    448;      0;       ;       ;       ;       ;       ;        
23/06/2024; 13:22:08; 004;  30,97;   43,9;    448;      0;       ;       ;       ;       ;       ;        
23/06/2024; 13:23:08; 004;  30,95;   43,9;    449;      0;       ;       ;       ;       ;       ;        
23/06/2024; 13:24:08; 004;  30,94;   43,9;    448;      0;       ;       ;       ;       ;       ;        
23/06/2024; 13:25:08; 004;  30,94;   43,9;    448;      0;       ;       ;       ;       ;       ;        
23/06/2024; 13:26:08; 004;  30,97;   44,0;    449;      0;       ;       ;       ;       ;       ;        
23/06/2024; 13:27:08; 004;  30,97;   44,0;    449;      0;       ;       ;       ;       ;       ;        
23/06/2024; 13:28:08; 004;  30,95;   43,9;    450;      0;       ;       ;       ;       ;       ;        
23/06/2024; 13:29:08; 004;  30,94;   44,0;    448;      0;       ;       ;       ;       ;       ;        
23/06/2024; 13:30:08; 004;  30,94;   44,0;    448;      0;       ;       ;       ;       ;       ;        
23/06/2024; 13:31:08; 004;  30,95;   44,0;    446;      0;       ;       ;       ;       ;       ;        
23/06/2024; 13:32:08; 004;  30,97;   44,0;    446;      0;       ;       ;       ;       ;       ;        
23/06/2024; 13:33:08; 004;  30,97;   44,0;    447;      0;       ;       ;       ;       ;       ;        
23/06/2024; 13:34:08; 004;  30,93;   43,9;    448;      0;       ;       ;       ;       ;       ;        
23/06/2024; 13:35:08; 004;  30,95;   43,9;    448;      0;       ;       ;       ;       ;       ;        
23/06/2024; 13:36:08; 004;  30,97;   44,0;    447;      0;       ;       ;       ;       ;       ;        
23/06/2024; 13:37:08; 004;  30,91;   44,0;    447;      0;       ;       ;       ;       ;       ;        
23/06/2024; 13:38:08; 004;  30,97;   44,0;    448;      0;       ;       ;       ;       ;       ;        
23/06/2024; 13:39:08; 004;  30,94;   44,0;    448;      0;       ;       ;       ;       ;       ;        
23/06/2024; 13:40:08; 004;  30,97;   44,0;    448;      0;       ;       ;       ;       ;       ;        
23/06/2024; 13:41:08; 004;  30,94;   44,0;    447;      0;       ;       ;       ;       ;       ;        
23/06/2024; 13:42:08; 004;  30,97;   44,0;    447;      0;       ;       ;       ;       ;       ;        
23/06/2024; 13:43:08; 004;  30,97;   44,0;    446;      0;       ;       ;       ;       ;       ;        
23/06/2024; 13:44:08; 004;  30,95;   44,0;    446;      0;       ;       ;       ;       ;       ;        
23/06/2024; 13:45:08; 004;  30,95;   44,0;    446;      0;       ;       ;       ;       ;       ;        
23/06/2024; 13:46:08; 004;  30,94;   44,0;    448;      0;       ;       ;       ;       ;       ;        
23/06/2024; 13:47:08; 004;  30,97;   44,0;    447;      0;       ;       ;       ;       ;       ;        
23/06/2024; 13:48:08; 004;  30,98;   44,0;    446;      0;       ;       ;       ;       ;       ;        
23/06/2024; 13:49:08; 004;  30,95;   44,0;    446;      0;       ;       ;       ;       ;       ;        
23/06/2024; 13:50:08; 004;  30,98;   44,0;    446;      0;       ;       ;       ;       ;       ;        
23/06/2024; 13:51:08; 004;  31,00;   44,0;    446;      0;       ;       ;       ;       ;       ;        
23/06/2024; 13:52:08; 004;  30,94;   44,0;    446;      0;       ;       ;       ;       ;       ;        
23/06/2024; 13:53:08; 004;  30,94;   44,0;    446;      0;       ;       ;       ;       ;       ;        
23/06/2024; 13:54:08; 004;  30,97;   44,0;    448;      0;       ;       ;       ;       ;       ;        
23/06/2024; 13:55:08; 004;  30,95;   44,0;    448;      0;       ;       ;       ;       ;       ;        
23/06/2024; 13:56:08; 004;  30,93;   44,1;    448;      0;       ;       ;       ;       ;       ;        
23/06/2024; 13:57:08; 004;  30,94;   44,0;    448;      0;       ;       ;       ;       ;       ;        
23/06/2024; 13:58:08; 004;  30,95;   44,0;    446;      0;       ;       ;       ;       ;       ;        
23/06/2024; 13:59:08; 004;  30,94;   44,1;    446;      0;       ;       ;       ;       ;       ;        
23/06/2024; 14:00:08; 004;  30,97;   44,0;    446;      0;       ;       ;       ;       ;       ;        
23/06/2024; 14:01:08; 004;  30,95;   44,1;    445;      0;       ;       ;       ;       ;       ;        
23/06/2024; 14:02:08; 004;  30,95;   44,1;    445;      0;       ;       ;       ;       ;       ;        
23/06/2024; 14:03:08; 004;  30,95;   44,1;    447;      0;       ;       ;       ;       ;       ;        
23/06/2024; 14:04:08; 004;  30,97;   44,0;    446;      0;       ;       ;       ;       ;       ;        
23/06/2024; 14:05:08; 004;  30,95;   44,1;    445;      0;       ;       ;       ;       ;       ;        
23/06/2024; 14:06:08; 004;  30,95;   44,2;    445;      0;       ;       ;       ;       ;       ;        
23/06/2024; 14:07:08; 004;  30,95;   44,2;    445;      0;       ;       ;       ;       ;       ;        
23/06/2024; 14:08:08; 004;  30,97;   44,2;    447;      0;       ;       ;       ;       ;       ;        
23/06/2024; 14:09:08; 004;  30,97;   44,1;    446;      0;       ;       ;       ;       ;       ;        
23/06/2024; 14:10:08; 004;  30,98;   44,1;    446;      0;       ;       ;       ;       ;       ;        
23/06/2024; 14:11:08; 004;  30,95;   44,1;    445;      0;       ;       ;       ;       ;       ;        
23/06/2024; 14:12:08; 004;  30,95;   44,2;    445;      0;       ;       ;       ;       ;       ;        
23/06/2024; 14:13:08; 004;  30,97;   44,2;    443;      0;       ;       ;       ;       ;       ;        
23/06/2024; 14:14:08; 004;  30,95;   44,1;    445;      0;       ;       ;       ;       ;       ;        
23/06/2024; 14:15:08; 004;  30,94;   44,2;    445;      0;       ;       ;       ;       ;       ;        
23/06/2024; 14:16:08; 004;  30,97;   44,1;    444;      0;       ;       ;       ;       ;       ;        
23/06/2024; 14:17:08; 004;  30,95;   44,1;    445;      0;       ;       ;       ;       ;       ;        
23/06/2024; 14:18:08; 004;  30,95;   44,2;    444;      0;       ;       ;       ;       ;       ;        
23/06/2024; 14:19:08; 004;  30,97;   44,2;    443;      0;       ;       ;       ;       ;       ;        
23/06/2024; 14:20:08; 004;  30,97;   44,2;    443;      0;       ;       ;       ;       ;       ;        
23/06/2024; 14:21:08; 004;  30,97;   44,2;    443;      0;       ;       ;       ;       ;       ;        
23/06/2024; 14:22:08; 004;  30,98;   44,2;    443;      0;       ;       ;       ;       ;       ;        
23/06/2024; 14:23:08; 004;  30,97;   44,2;    443;      0;       ;       ;       ;       ;       ;        
23/06/2024; 14:24:08; 004;  30,98;   44,2;    443;      0;       ;       ;       ;       ;       ;        
23/06/2024; 14:25:08; 004;  30,94;   44,2;    443;      0;       ;       ;       ;       ;       ;        
23/06/2024; 14:26:08; 004;  30,97;   44,2;    442;      0;       ;       ;       ;       ;       ;        
23/06/2024; 14:27:08; 004;  30,98;   44,2;    442;      0;       ;       ;       ;       ;       ;        
23/06/2024; 14:28:08; 004;  30,97;   44,3;    442;      0;       ;       ;       ;       ;       ;        
23/06/2024; 14:29:08; 004;  30,97;   44,2;    442;      0;       ;       ;       ;       ;       ;        
23/06/2024; 14:30:08; 004;  30,97;   44,3;    441;      0;       ;       ;       ;       ;       ;        
23/06/2024; 14:31:08; 004;  30,98;   44,3;    442;      0;       ;       ;       ;       ;       ;        
23/06/2024; 14:32:08; 004;  30,98;   44,2;    442;      0;       ;       ;       ;       ;       ;        
23/06/2024; 14:33:08; 004;  31,00;   44,3;    442;      0;       ;       ;       ;       ;       ;        
23/06/2024; 14:34:08; 004;  30,95;   44,3;    443;      0;       ;       ;       ;       ;       ;        
23/06/2024; 14:35:08; 004;  30,98;   44,3;    443;      0;       ;       ;       ;       ;       ;        
23/06/2024; 14:36:08; 004;  31,00;   44,3;    444;      0;       ;       ;       ;       ;       ;        
23/06/2024; 14:37:08; 004;  30,97;   44,4;    443;      0;       ;       ;       ;       ;       ;        
23/06/2024; 14:38:08; 004;  30,98;   44,3;    443;      0;       ;       ;       ;       ;       ;        
23/06/2024; 14:39:08; 004;  31,00;   44,2;    442;      0;       ;       ;       ;       ;       ;        
23/06/2024; 14:40:08; 004;  30,97;   44,2;    441;      0;       ;       ;       ;       ;       ;        
23/06/2024; 14:41:08; 004;  31,00;   44,4;    442;      0;       ;       ;       ;       ;       ;        
23/06/2024; 14:42:08; 004;  31,00;   44,4;    444;      0;       ;       ;       ;       ;       ;        
23/06/2024; 14:43:08; 004;  30,98;   44,4;    444;      0;       ;       ;       ;       ;       ;        
23/06/2024; 14:44:08; 004;  31,03;   44,3;    443;      0;       ;       ;       ;       ;       ;        
23/06/2024; 14:45:09; 004;  31,04;   44,3;    443;      0;       ;       ;       ;       ;       ;        
23/06/2024; 14:46:08; 004;  31,00;   44,4;    443;      0;       ;       ;       ;       ;       ;        
23/06/2024; 14:47:08; 004;  31,01;   44,4;    443;      0;       ;       ;       ;       ;       ;        
23/06/2024; 14:48:08; 004;  31,01;   44,3;    442;      0;       ;       ;       ;       ;       ;        
23/06/2024; 14:49:08; 004;  31,00;   44,3;    442;      0;       ;       ;       ;       ;       ;        
23/06/2024; 14:50:08; 004;  30,98;   44,3;    442;      0;       ;       ;       ;       ;       ;        
23/06/2024; 14:51:08; 004;  31,00;   44,3;    442;      0;       ;       ;       ;       ;       ;        
23/06/2024; 14:52:08; 004;  31,03;   44,4;    442;      0;       ;       ;       ;       ;       ;        
23/06/2024; 14:53:08; 004;  30,98;   44,3;    441;      0;       ;       ;       ;       ;       ;        
23/06/2024; 14:54:08; 004;  31,00;   44,3;    442;      0;       ;       ;       ;       ;       ;        
23/06/2024; 14:55:08; 004;  31,00;   44,4;    442;      0;       ;       ;       ;       ;       ;        
23/06/2024; 14:56:08; 004;  31,01;   44,4;    442;      0;       ;       ;       ;       ;       ;        
23/06/2024; 14:57:08; 004;  31,03;   44,3;    442;      0;       ;       ;       ;       ;       ;        
23/06/2024; 14:58:08; 004;  31,00;   44,4;    442;      0;       ;       ;       ;       ;       ;        
23/06/2024; 14:59:08; 004;  31,03;   44,4;    441;      0;       ;       ;       ;       ;       ;        
23/06/2024; 15:00:08; 004;  31,03;   44,4;    440;      0;       ;       ;       ;       ;       ;        
23/06/2024; 15:01:08; 004;  31,01;   44,5;    441;      0;       ;       ;       ;       ;       ;        
23/06/2024; 15:02:08; 004;  31,04;   44,3;    441;      0;       ;       ;       ;       ;       ;        
23/06/2024; 15:03:09; 004;  31,00;   44,4;    442;      0;       ;       ;       ;       ;       ;        
23/06/2024; 15:04:08; 004;  31,03;   44,4;    442;      0;       ;       ;       ;       ;       ;        
23/06/2024; 15:05:08; 004;  31,03;   44,4;    441;      0;       ;       ;       ;       ;       ;        
23/06/2024; 15:06:08; 004;  31,03;   44,4;    441;      0;       ;       ;       ;       ;       ;        
23/06/2024; 15:07:08; 004;  31,01;   44,5;    440;      0;       ;       ;       ;       ;       ;        
23/06/2024; 15:08:08; 004;  31,03;   44,4;    440;      0;       ;       ;       ;       ;       ;        
23/06/2024; 15:09:09; 004;  31,05;   44,5;    440;      0;       ;       ;       ;       ;       ;        
23/06/2024; 15:10:08; 004;  31,03;   44,4;    440;      0;       ;       ;       ;       ;       ;        
23/06/2024; 15:11:08; 004;  31,04;   44,4;    440;      0;       ;       ;       ;       ;       ;        
23/06/2024; 15:12:08; 004;  31,03;   44,4;    440;      0;       ;       ;       ;       ;       ;        
23/06/2024; 15:13:08; 004;  31,03;   44,5;    440;      0;       ;       ;       ;       ;       ;        
23/06/2024; 15:14:09; 004;  31,03;   44,4;    441;      0;       ;       ;       ;       ;       ;        
23/06/2024; 15:15:09; 004;  31,05;   44,4;    440;      0;       ;       ;       ;       ;       ;        
23/06/2024; 15:16:08; 004;  31,04;   44,4;    439;      0;       ;       ;       ;       ;       ;        
23/06/2024; 15:17:08; 004;  31,05;   44,4;    440;      0;       ;       ;       ;       ;       ;        
23/06/2024; 15:18:08; 004;  31,07;   44,4;    438;      0;       ;       ;       ;       ;       ;        
23/06/2024; 15:19:08; 004;  31,05;   44,4;    440;      0;       ;       ;       ;       ;       ;        
23/06/2024; 15:20:09; 004;  31,05;   44,5;    440;      0;       ;       ;       ;       ;       ;        
23/06/2024; 15:21:09; 004;  31,04;   44,5;    440;      0;       ;       ;       ;       ;       ;        
23/06/2024; 15:22:08; 004;  31,04;   44,5;    439;      0;       ;       ;       ;       ;       ;        
23/06/2024; 15:23:09; 004;  31,05;   44,5;    439;      0;       ;       ;       ;       ;       ;        
23/06/2024; 15:24:09; 004;  31,07;   44,4;    439;      0;       ;       ;       ;       ;       ;        
23/06/2024; 15:25:09; 004;  31,07;   44,5;    442;      0;       ;       ;       ;       ;       ;        
23/06/2024; 15:26:09; 004;  31,08;   44,5;    440;      0;       ;       ;       ;       ;       ;        
23/06/2024; 15:27:09; 004;  31,07;   44,4;    439;      0;       ;       ;       ;       ;       ;        
23/06/2024; 15:28:09; 004;  31,07;   44,5;    440;      0;       ;       ;       ;       ;       ;        
23/06/2024; 15:29:09; 004;  31,08;   44,5;    441;      0;       ;       ;       ;       ;       ;        
23/06/2024; 15:30:09; 004;  31,08;   44,5;    441;      0;       ;       ;       ;       ;       ;        
23/06/2024; 15:31:09; 004;  31,08;   44,4;    439;      0;       ;       ;       ;       ;       ;        
23/06/2024; 15:32:09; 004;  31,08;   44,5;    439;      0;       ;       ;       ;       ;       ;        
23/06/2024; 15:33:09; 004;  31,10;   44,5;    438;      0;       ;       ;       ;       ;       ;        
23/06/2024; 15:34:09; 004;  31,10;   44,5;    438;      0;       ;       ;       ;       ;       ;        
23/06/2024; 15:35:09; 004;  31,11;   44,5;    437;      0;       ;       ;       ;       ;       ;        
23/06/2024; 15:36:09; 004;  31,05;   44,5;    437;      0;       ;       ;       ;       ;       ;        
23/06/2024; 15:37:09; 004;  31,11;   44,5;    436;      0;       ;       ;       ;       ;       ;        
23/06/2024; 15:38:09; 004;  31,11;   44,6;    438;      0;       ;       ;       ;       ;       ;        
23/06/2024; 15:39:09; 004;  31,08;   44,5;    439;      0;       ;       ;       ;       ;       ;        
23/06/2024; 15:40:09; 004;  31,10;   44,5;    437;      0;       ;       ;       ;       ;       ;        
23/06/2024; 15:41:09; 004;  31,07;   44,6;    435;      0;       ;       ;       ;       ;       ;        
23/06/2024; 15:42:09; 004;  31,11;   44,6;    437;      0;       ;       ;       ;       ;       ;        
23/06/2024; 15:43:09; 004;  31,10;   44,6;    439;      0;       ;       ;       ;       ;       ;        
23/06/2024; 15:44:09; 004;  31,11;   44,6;    438;      0;       ;       ;       ;       ;       ;        
23/06/2024; 15:45:09; 004;  31,11;   44,5;    435;      0;       ;       ;       ;       ;       ;        
23/06/2024; 15:46:09; 004;  31,10;   44,6;    435;      0;       ;       ;       ;       ;       ;        
23/06/2024; 15:47:09; 004;  31,11;   44,6;    436;      0;       ;       ;       ;       ;       ;        
23/06/2024; 15:48:09; 004;  31,11;   44,6;    436;      0;       ;       ;       ;       ;       ;        
23/06/2024; 15:49:09; 004;  31,13;   44,6;    437;      0;       ;       ;       ;       ;       ;        
23/06/2024; 15:50:09; 004;  31,11;   44,6;    436;      0;       ;       ;       ;       ;       ;        
23/06/2024; 15:51:09; 004;  31,13;   44,6;    437;      0;       ;       ;       ;       ;       ;        
23/06/2024; 15:52:09; 004;  31,13;   44,5;    437;      0;       ;       ;       ;       ;       ;        
23/06/2024; 15:53:09; 004;  31,11;   44,6;    436;      0;       ;       ;       ;       ;       ;        
23/06/2024; 15:54:09; 004;  31,13;   44,7;    436;      0;       ;       ;       ;       ;       ;        
23/06/2024; 15:55:09; 004;  31,13;   44,7;    434;      0;       ;       ;       ;       ;       ;        
23/06/2024; 15:56:09; 004;  31,13;   44,6;    435;      0;       ;       ;       ;       ;       ;        
23/06/2024; 15:57:09; 004;  31,14;   44,6;    438;      0;       ;       ;       ;       ;       ;        
23/06/2024; 15:58:09; 004;  31,14;   44,7;    435;      0;       ;       ;       ;       ;       ;        
23/06/2024; 15:59:09; 004;  31,15;   44,7;    433;      0;       ;       ;       ;       ;       ;        
23/06/2024; 16:00:09; 004;  31,14;   44,7;    434;      0;       ;       ;       ;       ;       ;        
23/06/2024; 16:01:09; 004;  31,15;   44,7;    435;      0;       ;       ;       ;       ;       ;        
23/06/2024; 16:02:09; 004;  31,15;   44,7;    435;      0;       ;       ;       ;       ;       ;        
23/06/2024; 16:03:09; 004;  31,15;   44,7;    435;      0;       ;       ;       ;       ;       ;        
23/06/2024; 16:04:09; 004;  31,11;   44,7;    435;      0;       ;       ;       ;       ;       ;        
23/06/2024; 16:05:09; 004;  31,14;   44,7;    434;      0;       ;       ;       ;       ;       ;        
23/06/2024; 16:06:09; 004;  31,14;   44,7;    434;      0;       ;       ;       ;       ;       ;        
23/06/2024; 16:07:09; 004;  31,13;   44,8;    434;      0;       ;       ;       ;       ;       ;        
23/06/2024; 16:08:09; 004;  31,15;   44,7;    434;      0;       ;       ;       ;       ;       ;        
23/06/2024; 16:09:09; 004;  31,15;   44,7;    434;      0;       ;       ;       ;       ;       ;        
23/06/2024; 16:10:09; 004;  31,15;   44,7;    434;      0;       ;       ;       ;       ;       ;        
23/06/2024; 16:11:09; 004;  31,17;   44,8;    434;      0;       ;       ;       ;       ;       ;        
23/06/2024; 16:12:09; 004;  31,14;   44,7;    434;      0;       ;       ;       ;       ;       ;        
23/06/2024; 16:13:09; 004;  31,15;   44,7;    433;      0;       ;       ;       ;       ;       ;        
23/06/2024; 16:14:09; 004;  31,17;   44,7;    434;      0;       ;       ;       ;       ;       ;        
23/06/2024; 16:15:09; 004;  31,18;   44,8;    434;      0;       ;       ;       ;       ;       ;        
23/06/2024; 16:16:09; 004;  31,20;   44,8;    433;      0;       ;       ;       ;       ;       ;        
23/06/2024; 16:17:09; 004;  31,18;   44,8;    432;      0;       ;       ;       ;       ;       ;        
23/06/2024; 16:18:09; 004;  31,18;   44,8;    433;      0;       ;       ;       ;       ;       ;        
23/06/2024; 16:19:09; 004;  31,17;   44,9;    433;      0;       ;       ;       ;       ;       ;        
23/06/2024; 16:20:09; 004;  31,20;   44,8;    433;      0;       ;       ;       ;       ;       ;        
23/06/2024; 16:21:09; 004;  31,18;   44,8;    434;      0;       ;       ;       ;       ;       ;        
23/06/2024; 16:22:09; 004;  31,18;   44,8;    433;      0;       ;       ;       ;       ;       ;        
23/06/2024; 16:23:09; 004;  31,22;   44,9;    432;      0;       ;       ;       ;       ;       ;        
23/06/2024; 16:24:09; 004;  31,21;   44,8;    434;      0;       ;       ;       ;       ;       ;        
23/06/2024; 16:25:09; 004;  31,20;   44,8;    434;      0;       ;       ;       ;       ;       ;        
23/06/2024; 16:26:09; 004;  31,21;   44,9;    431;      0;       ;       ;       ;       ;       ;        
23/06/2024; 16:27:09; 004;  31,21;   44,8;    431;      0;       ;       ;       ;       ;       ;        
23/06/2024; 16:28:09; 004;  31,21;   44,8;    432;      0;       ;       ;       ;       ;       ;        
23/06/2024; 16:29:09; 004;  31,20;   44,8;    432;      0;       ;       ;       ;       ;       ;        
23/06/2024; 16:30:09; 004;  31,21;   44,9;    432;      0;       ;       ;       ;       ;       ;        
23/06/2024; 16:31:09; 004;  31,21;   44,8;    432;      0;       ;       ;       ;       ;       ;        
23/06/2024; 16:32:09; 004;  31,21;   44,9;    432;      0;       ;       ;       ;       ;       ;        
23/06/2024; 16:33:09; 004;  31,24;   44,9;    433;      0;       ;       ;       ;       ;       ;        
23/06/2024; 16:34:09; 004;  31,21;   44,8;    432;      0;       ;       ;       ;       ;       ;        
23/06/2024; 16:35:09; 004;  31,25;   44,9;    431;      0;       ;       ;       ;       ;       ;        
23/06/2024; 16:36:09; 004;  31,24;   44,9;    432;      0;       ;       ;       ;       ;       ;        
23/06/2024; 16:37:09; 004;  31,24;   44,8;    431;      0;       ;       ;       ;       ;       ;        
23/06/2024; 16:38:09; 004;  31,22;   44,9;    429;      0;       ;       ;       ;       ;       ;        
23/06/2024; 16:39:09; 004;  31,21;   44,9;    431;      0;       ;       ;       ;       ;       ;        
23/06/2024; 16:40:09; 004;  31,21;   44,9;    432;      0;       ;       ;       ;       ;       ;        
23/06/2024; 16:41:09; 004;  31,25;   44,9;    431;      0;       ;       ;       ;       ;       ;        
23/06/2024; 16:42:09; 004;  31,26;   44,9;    430;      0;       ;       ;       ;       ;       ;        
23/06/2024; 16:43:09; 004;  31,25;   44,9;    429;      0;       ;       ;       ;       ;       ;        
23/06/2024; 16:44:09; 004;  31,26;   44,9;    431;      0;       ;       ;       ;       ;       ;        
23/06/2024; 16:45:09; 004;  31,24;   44,9;    431;      0;       ;       ;       ;       ;       ;        
23/06/2024; 16:46:09; 004;  31,25;   44,9;    431;      0;       ;       ;       ;       ;       ;        
23/06/2024; 16:47:09; 004;  31,25;   44,9;    430;      0;       ;       ;       ;       ;       ;        
23/06/2024; 16:48:09; 004;  31,26;   45,0;    429;      0;       ;       ;       ;       ;       ;        
23/06/2024; 16:49:09; 004;  31,28;   44,9;    431;      0;       ;       ;       ;       ;       ;        
23/06/2024; 16:50:09; 004;  31,26;   44,9;    431;      0;       ;       ;       ;       ;       ;        
23/06/2024; 16:51:09; 004;  31,25;   44,9;    429;      0;       ;       ;       ;       ;       ;        
23/06/2024; 16:52:09; 004;  31,26;   44,9;    429;      0;       ;       ;       ;       ;       ;        
23/06/2024; 16:53:09; 004;  31,29;   44,9;    429;      0;       ;       ;       ;       ;       ;        
23/06/2024; 16:54:09; 004;  31,29;   44,9;    429;      0;       ;       ;       ;       ;       ;        
23/06/2024; 16:55:09; 004;  31,29;   44,9;    428;      0;       ;       ;       ;       ;       ;        
23/06/2024; 16:56:09; 004;  31,26;   44,9;    429;      0;       ;       ;       ;       ;       ;        
23/06/2024; 16:57:09; 004;  31,29;   44,9;    430;      0;       ;       ;       ;       ;       ;        
23/06/2024; 16:58:09; 004;  31,31;   44,9;    430;      0;       ;       ;       ;       ;       ;        
23/06/2024; 16:59:09; 004;  31,29;   45,0;    428;      0;       ;       ;       ;       ;       ;        
23/06/2024; 17:00:09; 004;  31,31;   45,0;    428;      0;       ;       ;       ;       ;       ;        
23/06/2024; 17:01:09; 004;  31,31;   45,0;    427;      0;       ;       ;       ;       ;       ;        
23/06/2024; 17:02:09; 004;  31,31;   45,0;    428;      0;       ;       ;       ;       ;       ;        
23/06/2024; 17:03:09; 004;  31,32;   45,0;    427;      0;       ;       ;       ;       ;       ;        
23/06/2024; 17:04:09; 004;  31,29;   45,0;    426;      0;       ;       ;       ;       ;       ;        
23/06/2024; 17:05:09; 004;  31,35;   45,0;    427;      0;       ;       ;       ;       ;       ;        
23/06/2024; 17:06:09; 004;  31,32;   45,0;    427;      0;       ;       ;       ;       ;       ;        
23/06/2024; 17:07:09; 004;  31,34;   45,0;    427;      0;       ;       ;       ;       ;       ;        
23/06/2024; 17:08:09; 004;  31,32;   45,0;    427;      0;       ;       ;       ;       ;       ;        
23/06/2024; 17:09:09; 004;  31,32;   45,1;    427;      0;       ;       ;       ;       ;       ;        
23/06/2024; 17:10:09; 004;  31,34;   45,1;    427;      0;       ;       ;       ;       ;       ;        
23/06/2024; 17:11:09; 004;  31,35;   45,0;    426;      0;       ;       ;       ;       ;       ;        
23/06/2024; 17:12:09; 004;  31,36;   45,1;    426;      0;       ;       ;       ;       ;       ;        
23/06/2024; 17:13:09; 004;  31,35;   45,1;    426;      0;       ;       ;       ;       ;       ;        
23/06/2024; 17:14:09; 004;  31,35;   45,1;    427;      0;       ;       ;       ;       ;       ;        
23/06/2024; 17:15:09; 004;  31,36;   45,1;    427;      0;       ;       ;       ;       ;       ;        
23/06/2024; 17:16:09; 004;  31,36;   45,1;    426;      0;       ;       ;       ;       ;       ;        
23/06/2024; 17:17:09; 004;  31,35;   45,1;    426;      0;       ;       ;       ;       ;       ;        
23/06/2024; 17:18:09; 004;  31,35;   45,0;    426;      0;       ;       ;       ;       ;       ;        
23/06/2024; 17:19:09; 004;  31,36;   45,1;    425;      0;       ;       ;       ;       ;       ;        
23/06/2024; 17:20:09; 004;  31,36;   45,0;    426;      0;       ;       ;       ;       ;       ;        
23/06/2024; 17:21:09; 004;  31,39;   45,1;    425;      0;       ;       ;       ;       ;       ;        
23/06/2024; 17:22:09; 004;  31,39;   45,1;    424;      0;       ;       ;       ;       ;       ;        
23/06/2024; 17:23:09; 004;  31,38;   45,1;    426;      0;       ;       ;       ;       ;       ;        
23/06/2024; 17:24:09; 004;  31,38;   45,1;    425;      0;       ;       ;       ;       ;       ;        
23/06/2024; 17:25:09; 004;  31,39;   45,1;    425;      0;       ;       ;       ;       ;       ;        
23/06/2024; 17:26:09; 004;  31,41;   45,1;    425;      0;       ;       ;       ;       ;       ;        
23/06/2024; 17:27:09; 004;  31,39;   45,1;    422;      0;       ;       ;       ;       ;       ;        
23/06/2024; 17:28:09; 004;  31,41;   45,1;    425;      0;       ;       ;       ;       ;       ;        
23/06/2024; 17:29:09; 004;  31,41;   45,1;    426;      0;       ;       ;       ;       ;       ;        
23/06/2024; 17:30:09; 004;  31,41;   45,1;    425;      0;       ;       ;       ;       ;       ;        
23/06/2024; 17:31:09; 004;  31,41;   45,1;    424;      0;       ;       ;       ;       ;       ;        
23/06/2024; 17:32:09; 004;  31,42;   45,1;    424;      0;       ;       ;       ;       ;       ;        
23/06/2024; 17:33:09; 004;  31,41;   45,1;    425;      0;       ;       ;       ;       ;       ;        
23/06/2024; 17:34:09; 004;  31,41;   45,1;    424;      0;       ;       ;       ;       ;       ;        
23/06/2024; 17:35:09; 004;  31,41;   45,1;    424;      0;       ;       ;       ;       ;       ;        
23/06/2024; 17:36:09; 004;  31,42;   45,1;    422;      0;       ;       ;       ;       ;       ;        
23/06/2024; 17:37:09; 004;  31,42;   45,1;    423;      0;       ;       ;       ;       ;       ;        
23/06/2024; 17:38:09; 004;  31,45;   45,1;    424;      0;       ;       ;       ;       ;       ;        
23/06/2024; 17:39:09; 004;  31,46;   45,1;    424;      0;       ;       ;       ;       ;       ;        
23/06/2024; 17:40:09; 004;  31,44;   45,1;    424;      0;       ;       ;       ;       ;       ;        
23/06/2024; 17:41:09; 004;  31,45;   45,1;    424;      0;       ;       ;       ;       ;       ;        
23/06/2024; 17:42:09; 004;  31,42;   45,1;    424;      0;       ;       ;       ;       ;       ;        
23/06/2024; 17:43:09; 004;  31,44;   45,1;    423;      0;       ;       ;       ;       ;       ;        
23/06/2024; 17:44:09; 004;  31,45;   45,1;    422;      0;       ;       ;       ;       ;       ;        
23/06/2024; 17:45:09; 004;  31,44;   45,1;    422;      0;       ;       ;       ;       ;       ;        
23/06/2024; 17:46:09; 004;  31,46;   45,1;    422;      0;       ;       ;       ;       ;       ;        
23/06/2024; 17:47:00;    ;       ;       ;       ;       ;       ;       ;       ;       ;       ;       
23/06/2024; 17:48:00;    ;       ;       ;       ;       ;       ;       ;       ;       ;       ;       
23/06/2024; 17:49:09; 004;  31,45;   45,2;    422;      0;       ;       ;       ;       ;       ;        
23/06/2024; 17:50:09; 004;  31,42;   45,2;    423;      0;       ;       ;       ;       ;       ;        
23/06/2024; 17:51:09; 004;  31,46;   45,2;    421;      0;       ;       ;       ;       ;       ;        
23/06/2024; 17:52:09; 004;  31,45;   45,2;    423;      0;       ;       ;       ;       ;       ;        
23/06/2024; 17:53:00;    ;       ;       ;       ;       ;       ;       ;       ;       ;       ;       
23/06/2024; 17:54:00;    ;       ;       ;       ;       ;       ;       ;       ;       ;       ;       
23/06/2024; 17:55:09; 004;  31,44;   45,2;    423;      0;       ;       ;       ;       ;       ;        
23/06/2024; 17:56:00;    ;       ;       ;       ;       ;       ;       ;       ;       ;       ;       
23/06/2024; 17:57:09; 004;  31,45;   45,2;    423;      0;       ;       ;       ;       ;       ;        
23/06/2024; 17:58:09; 004;  31,46;   45,2;    424;      0;       ;       ;       ;       ;       ;        
23/06/2024; 17:59:09; 004;  31,46;   45,2;    421;      0;       ;       ;       ;       ;       ;        
23/06/2024; 18:00:09; 004;  31,46;   45,2;    420;      0;       ;       ;       ;       ;       ;        
23/06/2024; 18:01:09; 004;  31,46;   45,2;    421;      0;       ;       ;       ;       ;       ;        
23/06/2024; 18:02:09; 004;  31,46;   45,2;    421;      0;       ;       ;       ;       ;       ;        
23/06/2024; 18:03:09; 004;  31,46;   45,2;    421;      0;       ;       ;       ;       ;       ;        
23/06/2024; 18:04:09; 004;  31,48;   45,2;    421;      0;       ;       ;       ;       ;       ;        
23/06/2024; 18:05:09; 004;  31,48;   45,2;    421;      0;       ;       ;       ;       ;       ;        
23/06/2024; 18:06:09; 004;  31,48;   45,2;    422;      0;       ;       ;       ;       ;       ;        
23/06/2024; 18:07:09; 004;  31,49;   45,2;    422;      0;       ;       ;       ;       ;       ;        
23/06/2024; 18:08:09; 004;  31,49;   45,2;    421;      0;       ;       ;       ;       ;       ;        
23/06/2024; 18:09:09; 004;  31,48;   45,2;    420;      0;       ;       ;       ;       ;       ;        
23/06/2024; 18:10:09; 004;  31,52;   45,2;    420;      0;       ;       ;       ;       ;       ;        
23/06/2024; 18:11:09; 004;  31,48;   45,2;    420;      0;       ;       ;       ;       ;       ;        
23/06/2024; 18:12:09; 004;  31,49;   45,2;    420;      0;       ;       ;       ;       ;       ;        
23/06/2024; 18:13:09; 004;  31,53;   45,2;    421;      0;       ;       ;       ;       ;       ;        
23/06/2024; 18:14:09; 004;  31,51;   45,2;    419;      0;       ;       ;       ;       ;       ;        
23/06/2024; 18:15:09; 004;  31,52;   45,2;    420;      0;       ;       ;       ;       ;       ;        
23/06/2024; 18:16:09; 004;  31,53;   45,2;    420;      0;       ;       ;       ;       ;       ;        
23/06/2024; 18:17:09; 004;  31,51;   45,2;    419;      0;       ;       ;       ;       ;       ;        
23/06/2024; 18:18:09; 004;  31,55;   45,2;    419;      0;       ;       ;       ;       ;       ;        
23/06/2024; 18:19:09; 004;  31,55;   45,2;    419;      0;       ;       ;       ;       ;       ;        
23/06/2024; 18:20:09; 004;  31,55;   45,1;    418;      0;       ;       ;       ;       ;       ;        
23/06/2024; 18:21:09; 004;  31,55;   45,2;    418;      0;       ;       ;       ;       ;       ;        
23/06/2024; 18:22:09; 004;  31,56;   45,2;    418;      0;       ;       ;       ;       ;       ;        
23/06/2024; 18:23:09; 004;  31,56;   45,2;    418;      0;       ;       ;       ;       ;       ;        
23/06/2024; 18:24:09; 004;  31,55;   45,2;    418;      0;       ;       ;       ;       ;       ;        
23/06/2024; 18:25:09; 004;  31,58;   45,2;    417;      0;       ;       ;       ;       ;       ;        
23/06/2024; 18:26:09; 004;  31,58;   45,2;    418;      0;       ;       ;       ;       ;       ;        
23/06/2024; 18:27:09; 004;  31,58;   45,2;    418;      0;       ;       ;       ;       ;       ;        
23/06/2024; 18:28:09; 004;  31,61;   45,2;    415;      0;       ;       ;       ;       ;       ;        
23/06/2024; 18:29:09; 004;  31,59;   45,2;    416;      0;       ;       ;       ;       ;       ;        
23/06/2024; 18:30:10; 004;  31,59;   45,1;    415;      0;       ;       ;       ;       ;       ;        
23/06/2024; 18:31:09; 004;  31,59;   45,2;    415;      0;       ;       ;       ;       ;       ;        
23/06/2024; 18:32:09; 004;  31,58;   45,2;    415;      0;       ;       ;       ;       ;       ;        
23/06/2024; 18:33:09; 004;  31,61;   45,2;    415;      0;       ;       ;       ;       ;       ;        
23/06/2024; 18:34:09; 004;  31,62;   45,2;    415;      0;       ;       ;       ;       ;       ;        
23/06/2024; 18:35:09; 004;  31,59;   45,2;    417;      0;       ;       ;       ;       ;       ;        
23/06/2024; 18:36:09; 004;  31,64;   45,2;    418;      0;       ;       ;       ;       ;       ;        
23/06/2024; 18:37:09; 004;  31,64;   45,2;    415;      0;       ;       ;       ;       ;       ;        
23/06/2024; 18:38:09; 004;  31,65;   45,2;    416;      0;       ;       ;       ;       ;       ;        
23/06/2024; 18:39:09; 004;  31,65;   45,2;    416;      0;       ;       ;       ;       ;       ;        
23/06/2024; 18:40:09; 004;  31,64;   45,2;    415;      0;       ;       ;       ;       ;       ;        
23/06/2024; 18:41:09; 004;  31,65;   45,2;    414;      0;       ;       ;       ;       ;       ;        
23/06/2024; 18:42:09; 004;  31,65;   45,2;    414;      0;       ;       ;       ;       ;       ;        
23/06/2024; 18:43:09; 004;  31,65;   45,1;    414;      0;       ;       ;       ;       ;       ;        
23/06/2024; 18:44:09; 004;  31,62;   45,2;    414;      0;       ;       ;       ;       ;       ;        
23/06/2024; 18:45:09; 004;  31,68;   45,2;    414;      0;       ;       ;       ;       ;       ;        
23/06/2024; 18:46:09; 004;  31,68;   45,2;    414;      0;       ;       ;       ;       ;       ;        
23/06/2024; 18:47:09; 004;  31,68;   45,2;    415;      0;       ;       ;       ;       ;       ;        
23/06/2024; 18:48:09; 004;  31,68;   45,2;    416;      0;       ;       ;       ;       ;       ;        
23/06/2024; 18:49:09; 004;  31,68;   45,2;    415;      0;       ;       ;       ;       ;       ;        
23/06/2024; 18:50:09; 004;  31,71;   45,2;    414;      0;       ;       ;       ;       ;       ;        
23/06/2024; 18:51:10; 004;  31,66;   45,2;    415;      0;       ;       ;       ;       ;       ;        
23/06/2024; 18:52:09; 004;  31,69;   45,2;    414;      0;       ;       ;       ;       ;       ;        
23/06/2024; 18:53:09; 004;  31,68;   45,2;    413;      0;       ;       ;       ;       ;       ;        
23/06/2024; 18:54:09; 004;  31,69;   45,2;    413;      0;       ;       ;       ;       ;       ;        
23/06/2024; 18:55:09; 004;  31,71;   45,2;    412;      0;       ;       ;       ;       ;       ;        
23/06/2024; 18:56:10; 004;  31,69;   45,2;    412;      0;       ;       ;       ;       ;       ;        
23/06/2024; 18:57:10; 004;  31,72;   45,2;    412;      0;       ;       ;       ;       ;       ;        
23/06/2024; 18:58:10; 004;  31,72;   45,2;    413;      0;       ;       ;       ;       ;       ;        
23/06/2024; 18:59:10; 004;  31,72;   45,3;    413;      0;       ;       ;       ;       ;       ;        
23/06/2024; 19:00:10; 004;  31,72;   45,2;    412;      0;       ;       ;       ;       ;       ;        
23/06/2024; 19:01:10; 004;  31,76;   45,2;    412;      0;       ;       ;       ;       ;       ;        
23/06/2024; 19:02:10; 004;  31,73;   45,3;    412;      0;       ;       ;       ;       ;       ;        
23/06/2024; 19:03:10; 004;  31,72;   45,3;    412;      0;       ;       ;       ;       ;       ;        
23/06/2024; 19:04:10; 004;  31,75;   45,3;    412;      0;       ;       ;       ;       ;       ;        
23/06/2024; 19:05:10; 004;  31,73;   45,2;    413;      0;       ;       ;       ;       ;       ;        
23/06/2024; 19:06:10; 004;  31,76;   45,3;    413;      0;       ;       ;       ;       ;       ;        
23/06/2024; 19:07:10; 004;  31,73;   45,3;    412;      0;       ;       ;       ;       ;       ;        
23/06/2024; 19:08:10; 004;  31,75;   45,3;    412;      0;       ;       ;       ;       ;       ;        
23/06/2024; 19:09:10; 004;  31,77;   45,3;    412;      0;       ;       ;       ;       ;       ;        
23/06/2024; 19:10:10; 004;  31,76;   45,3;    413;      0;       ;       ;       ;       ;       ;        
23/06/2024; 19:11:10; 004;  31,76;   45,3;    413;      0;       ;       ;       ;       ;       ;        
23/06/2024; 19:12:10; 004;  31,76;   45,3;    412;      0;       ;       ;       ;       ;       ;        
23/06/2024; 19:13:10; 004;  31,75;   45,3;    412;      0;       ;       ;       ;       ;       ;        
23/06/2024; 19:14:10; 004;  31,77;   45,3;    412;      0;       ;       ;       ;       ;       ;        
23/06/2024; 19:15:10; 004;  31,76;   45,3;    412;      0;       ;       ;       ;       ;       ;        
23/06/2024; 19:16:10; 004;  31,76;   45,3;    412;      0;       ;       ;       ;       ;       ;        
23/06/2024; 19:17:10; 004;  31,76;   45,4;    412;      0;       ;       ;       ;       ;       ;        
23/06/2024; 19:18:10; 004;  31,76;   45,4;    413;      0;       ;       ;       ;       ;       ;        
23/06/2024; 19:19:10; 004;  31,77;   45,3;    413;      0;       ;       ;       ;       ;       ;        
23/06/2024; 19:20:10; 004;  31,79;   45,3;    413;      0;       ;       ;       ;       ;       ;        
23/06/2024; 19:21:10; 004;  31,77;   45,3;    412;      0;       ;       ;       ;       ;       ;        
23/06/2024; 19:22:10; 004;  31,79;   45,4;    413;      0;       ;       ;       ;       ;       ;        
23/06/2024; 19:23:10; 004;  31,80;   45,4;    413;      0;       ;       ;       ;       ;       ;        
23/06/2024; 19:24:10; 004;  31,79;   45,4;    413;      0;       ;       ;       ;       ;       ;        
23/06/2024; 19:25:10; 004;  31,79;   45,4;    414;      0;       ;       ;       ;       ;       ;        
23/06/2024; 19:26:10; 004;  31,79;   45,4;    415;      0;       ;       ;       ;       ;       ;        
23/06/2024; 19:27:10; 004;  31,77;   45,4;    414;      0;       ;       ;       ;       ;       ;        
23/06/2024; 19:28:10; 004;  31,80;   45,4;    412;      0;       ;       ;       ;       ;       ;        
23/06/2024; 19:29:10; 004;  31,79;   45,4;    412;      0;       ;       ;       ;       ;       ;        
23/06/2024; 19:30:10; 004;  31,80;   45,5;    411;      0;       ;       ;       ;       ;       ;        
23/06/2024; 19:31:10; 004;  31,82;   45,5;    412;      0;       ;       ;       ;       ;       ;        
23/06/2024; 19:32:10; 004;  31,83;   45,4;    411;      0;       ;       ;       ;       ;       ;        
23/06/2024; 19:33:10; 004;  31,83;   45,5;    410;      0;       ;       ;       ;       ;       ;        
23/06/2024; 19:34:10; 004;  31,82;   45,4;    409;      0;       ;       ;       ;       ;       ;        
23/06/2024; 19:35:10; 004;  31,82;   45,5;    410;      0;       ;       ;       ;       ;       ;        
23/06/2024; 19:36:10; 004;  31,83;   45,5;    409;      0;       ;       ;       ;       ;       ;        
23/06/2024; 19:37:10; 004;  31,85;   45,5;    409;      0;       ;       ;       ;       ;       ;        
23/06/2024; 19:38:10; 004;  31,85;   45,5;    409;      0;       ;       ;       ;       ;       ;        
23/06/2024; 19:39:10; 004;  31,86;   45,5;    413;      0;       ;       ;       ;       ;       ;        
23/06/2024; 19:40:10; 004;  31,86;   45,5;    411;      0;       ;       ;       ;       ;       ;        
23/06/2024; 19:41:10; 004;  31,86;   45,5;    409;      0;       ;       ;       ;       ;       ;        
23/06/2024; 19:42:10; 004;  31,87;   45,5;    410;      0;       ;       ;       ;       ;       ;        
23/06/2024; 19:43:10; 004;  31,86;   45,5;    410;      0;       ;       ;       ;       ;       ;        
23/06/2024; 19:44:10; 004;  31,85;   45,5;    409;      0;       ;       ;       ;       ;       ;        
23/06/2024; 19:45:10; 004;  31,86;   45,5;    410;      0;       ;       ;       ;       ;       ;        
23/06/2024; 19:46:10; 004;  31,85;   45,5;    409;      0;       ;       ;       ;       ;       ;        
23/06/2024; 19:47:10; 004;  31,89;   45,5;    409;      0;       ;       ;       ;       ;       ;        
23/06/2024; 19:48:10; 004;  31,87;   45,6;    409;      0;       ;       ;       ;       ;       ;        
23/06/2024; 19:49:10; 004;  31,87;   45,5;    410;      0;       ;       ;       ;       ;       ;        
23/06/2024; 19:50:10; 004;  31,87;   45,6;    409;      0;       ;       ;       ;       ;       ;        
23/06/2024; 19:51:10; 004;  31,89;   45,6;    409;      0;       ;       ;       ;       ;       ;        
23/06/2024; 19:52:10; 004;  31,89;   45,6;    409;      0;       ;       ;       ;       ;       ;        
23/06/2024; 19:53:10; 004;  31,89;   45,5;    409;      0;       ;       ;       ;       ;       ;        
23/06/2024; 19:54:10; 004;  31,89;   45,6;    409;      0;       ;       ;       ;       ;       ;        
23/06/2024; 19:55:10; 004;  31,89;   45,6;    409;      0;       ;       ;       ;       ;       ;        
23/06/2024; 19:56:10; 004;  31,90;   45,6;    409;      0;       ;       ;       ;       ;       ;        
23/06/2024; 19:57:10; 004;  31,89;   45,6;    409;      0;       ;       ;       ;       ;       ;        
23/06/2024; 19:58:10; 004;  31,90;   45,6;    409;      0;       ;       ;       ;       ;       ;        
23/06/2024; 19:59:10; 004;  31,92;   45,6;    409;      0;       ;       ;       ;       ;       ;        
23/06/2024; 20:00:10; 004;  31,92;   45,6;    409;      0;       ;       ;       ;       ;       ;        
23/06/2024; 20:01:10; 004;  31,92;   45,6;    409;      0;       ;       ;       ;       ;       ;        
23/06/2024; 20:02:10; 004;  31,92;   45,6;    409;      0;       ;       ;       ;       ;       ;        
23/06/2024; 20:03:10; 004;  31,93;   45,6;    409;      0;       ;       ;       ;       ;       ;        
23/06/2024; 20:04:10; 004;  31,95;   45,6;    409;      0;       ;       ;       ;       ;       ;        
23/06/2024; 20:05:10; 004;  31,93;   45,6;    409;      0;       ;       ;       ;       ;       ;        
23/06/2024; 20:06:10; 004;  31,95;   45,6;    409;      0;       ;       ;       ;       ;       ;        
23/06/2024; 20:07:10; 004;  31,95;   45,6;    409;      0;       ;       ;       ;       ;       ;        
23/06/2024; 20:08:10; 004;  31,93;   45,6;    409;      0;       ;       ;       ;       ;       ;        
23/06/2024; 20:09:10; 004;  31,95;   45,5;    409;      0;       ;       ;       ;       ;       ;        
23/06/2024; 20:10:10; 004;  31,93;   45,6;    409;      0;       ;       ;       ;       ;       ;        
23/06/2024; 20:11:10; 004;  31,95;   45,6;    409;      0;       ;       ;       ;       ;       ;        
23/06/2024; 20:12:10; 004;  31,96;   45,6;    408;      0;       ;       ;       ;       ;       ;        
23/06/2024; 20:13:10; 004;  31,96;   45,6;    408;      0;       ;       ;       ;       ;       ;        
23/06/2024; 20:14:10; 004;  31,95;   45,6;    409;      0;       ;       ;       ;       ;       ;        
23/06/2024; 20:15:10; 004;  31,97;   45,6;    409;      0;       ;       ;       ;       ;       ;        
23/06/2024; 20:16:10; 004;  31,97;   45,7;    409;      0;       ;       ;       ;       ;       ;        
23/06/2024; 20:17:10; 004;  31,96;   45,6;    409;      0;       ;       ;       ;       ;       ;        
23/06/2024; 20:18:10; 004;  31,99;   45,6;    409;      0;       ;       ;       ;       ;       ;        
23/06/2024; 20:19:10; 004;  31,97;   45,6;    409;      0;       ;       ;       ;       ;       ;        
23/06/2024; 20:20:10; 004;  31,99;   45,6;    408;      0;       ;       ;       ;       ;       ;        
23/06/2024; 20:21:10; 004;  31,99;   45,6;    408;      0;       ;       ;       ;       ;       ;        
23/06/2024; 20:22:10; 004;  32,02;   45,6;    408;      0;       ;       ;       ;       ;       ;        
23/06/2024; 20:23:10; 004;  32,02;   45,6;    408;      0;       ;       ;       ;       ;       ;        
23/06/2024; 20:24:10; 004;  31,99;   45,6;    408;      0;       ;       ;       ;       ;       ;        
23/06/2024; 20:25:10; 004;  32,02;   45,6;    408;      0;       ;       ;       ;       ;       ;        
23/06/2024; 20:26:10; 004;  32,03;   45,6;    408;      0;       ;       ;       ;       ;       ;        
23/06/2024; 20:27:10; 004;  32,03;   45,7;    408;      0;       ;       ;       ;       ;       ;        
23/06/2024; 20:28:10; 004;  32,02;   45,6;    408;      0;       ;       ;       ;       ;       ;        
23/06/2024; 20:29:10; 004;  32,03;   45,6;    407;      0;       ;       ;       ;       ;       ;        
23/06/2024; 20:30:10; 004;  32,03;   45,6;    407;      0;       ;       ;       ;       ;       ;        
23/06/2024; 20:31:10; 004;  32,05;   45,6;    407;      0;       ;       ;       ;       ;       ;        
23/06/2024; 20:32:10; 004;  32,05;   45,6;    408;      0;       ;       ;       ;       ;       ;        
23/06/2024; 20:33:10; 004;  32,05;   45,6;    407;      0;       ;       ;       ;       ;       ;        
23/06/2024; 20:34:10; 004;  32,05;   45,6;    407;      0;       ;       ;       ;       ;       ;        
23/06/2024; 20:35:10; 004;  32,05;   45,6;    407;      0;       ;       ;       ;       ;       ;        
23/06/2024; 20:36:10; 004;  32,06;   45,6;    407;      0;       ;       ;       ;       ;       ;        
23/06/2024; 20:37:10; 004;  32,07;   45,6;    407;      0;       ;       ;       ;       ;       ;        
23/06/2024; 20:38:10; 004;  32,07;   45,6;    407;      0;       ;       ;       ;       ;       ;        
23/06/2024; 20:39:10; 004;  32,09;   45,6;    407;      0;       ;       ;       ;       ;       ;        
23/06/2024; 20:40:10; 004;  32,06;   45,6;    407;      0;       ;       ;       ;       ;       ;        
23/06/2024; 20:41:10; 004;  32,09;   45,6;    407;      0;       ;       ;       ;       ;       ;        
23/06/2024; 20:42:10; 004;  32,12;   45,6;    407;      0;       ;       ;       ;       ;       ;        
23/06/2024; 20:43:10; 004;  32,10;   45,6;    407;      0;       ;       ;       ;       ;       ;        
23/06/2024; 20:44:10; 004;  32,10;   45,6;    407;      0;       ;       ;       ;       ;       ;        
23/06/2024; 20:45:10; 004;  32,09;   45,6;    407;      0;       ;       ;       ;       ;       ;        
23/06/2024; 20:46:10; 004;  32,13;   45,6;    407;      0;       ;       ;       ;       ;       ;        
23/06/2024; 20:47:10; 004;  32,13;   45,6;    407;      0;       ;       ;       ;       ;       ;        
23/06/2024; 20:48:10; 004;  32,15;   45,6;    407;      0;       ;       ;       ;       ;       ;        
23/06/2024; 20:49:10; 004;  32,15;   45,5;    406;      0;       ;       ;       ;       ;       ;        
23/06/2024; 20:50:10; 004;  32,15;   45,6;    406;      0;       ;       ;       ;       ;       ;        
23/06/2024; 20:51:10; 004;  32,16;   45,6;    406;      0;       ;       ;       ;       ;       ;        
23/06/2024; 20:52:10; 004;  32,15;   45,6;    406;      0;       ;       ;       ;       ;       ;        
23/06/2024; 20:53:10; 004;  32,17;   45,6;    407;      0;       ;       ;       ;       ;       ;        
23/06/2024; 20:54:10; 004;  32,19;   45,6;    406;      0;       ;       ;       ;       ;       ;        
23/06/2024; 20:55:10; 004;  32,16;   45,5;    407;      0;       ;       ;       ;       ;       ;        
23/06/2024; 20:56:10; 004;  32,19;   45,5;    407;      0;       ;       ;       ;       ;       ;        
23/06/2024; 20:57:10; 004;  32,19;   45,6;    406;      0;       ;       ;       ;       ;       ;        
23/06/2024; 20:58:10; 004;  32,19;   45,5;    406;      0;       ;       ;       ;       ;       ;        
23/06/2024; 20:59:10; 004;  32,23;   45,5;    406;      0;       ;       ;       ;       ;       ;        
23/06/2024; 21:00:10; 004;  32,20;   45,5;    406;      0;       ;       ;       ;       ;       ;        
23/06/2024; 21:01:10; 004;  32,22;   45,5;    406;      0;       ;       ;       ;       ;       ;        
23/06/2024; 21:02:10; 004;  32,22;   45,5;    406;      0;       ;       ;       ;       ;       ;        
23/06/2024; 21:03:10; 004;  32,23;   45,5;    406;      0;       ;       ;       ;       ;       ;        
23/06/2024; 21:04:10; 004;  32,24;   45,5;    406;      0;       ;       ;       ;       ;       ;        
23/06/2024; 21:05:10; 004;  32,23;   45,5;    406;      0;       ;       ;       ;       ;       ;        
23/06/2024; 21:06:10; 004;  32,24;   45,5;    406;      0;       ;       ;       ;       ;       ;        
23/06/2024; 21:07:10; 004;  32,27;   45,5;    406;      0;       ;       ;       ;       ;       ;        
23/06/2024; 21:08:10; 004;  32,27;   45,5;    406;      0;       ;       ;       ;       ;       ;        
23/06/2024; 21:09:10; 004;  32,27;   45,5;    406;      0;       ;       ;       ;       ;       ;        
23/06/2024; 21:10:10; 004;  32,27;   45,5;    406;      0;       ;       ;       ;       ;       ;        
23/06/2024; 21:11:10; 004;  32,27;   45,5;    406;      0;       ;       ;       ;       ;       ;        
23/06/2024; 21:12:10; 004;  32,27;   45,5;    406;      0;       ;       ;       ;       ;       ;        
23/06/2024; 21:13:10; 004;  32,27;   45,5;    405;      0;       ;       ;       ;       ;       ;        
23/06/2024; 21:14:10; 004;  32,30;   45,4;    406;      0;       ;       ;       ;       ;       ;        
23/06/2024; 21:15:10; 004;  32,31;   45,5;    406;      0;       ;       ;       ;       ;       ;        
23/06/2024; 21:16:10; 004;  32,30;   45,5;    405;      0;       ;       ;       ;       ;       ;        
23/06/2024; 21:17:10; 004;  32,33;   45,4;    405;      0;       ;       ;       ;       ;       ;        
23/06/2024; 21:18:10; 004;  32,30;   45,4;    405;      0;       ;       ;       ;       ;       ;        
23/06/2024; 21:19:10; 004;  32,33;   45,4;    404;      0;       ;       ;       ;       ;       ;        
23/06/2024; 21:20:10; 004;  32,31;   45,4;    405;      0;       ;       ;       ;       ;       ;        
23/06/2024; 21:21:10; 004;  32,31;   45,4;    405;      0;       ;       ;       ;       ;       ;        
23/06/2024; 21:22:10; 004;  32,34;   45,4;    405;      0;       ;       ;       ;       ;       ;        
23/06/2024; 21:23:10; 004;  32,36;   45,4;    404;      0;       ;       ;       ;       ;       ;        
23/06/2024; 21:24:10; 004;  32,36;   45,4;    404;      0;       ;       ;       ;       ;       ;        
23/06/2024; 21:25:10; 004;  32,36;   45,4;    405;      0;       ;       ;       ;       ;       ;        
23/06/2024; 21:26:10; 004;  32,38;   45,4;    404;      0;       ;       ;       ;       ;       ;        
23/06/2024; 21:27:10; 004;  32,36;   45,4;    404;      0;       ;       ;       ;       ;       ;        
23/06/2024; 21:28:10; 004;  32,37;   45,4;    405;      0;       ;       ;       ;       ;       ;        
23/06/2024; 21:29:10; 004;  32,38;   45,4;    405;      0;       ;       ;       ;       ;       ;        
23/06/2024; 21:30:10; 004;  32,40;   45,3;    404;      0;       ;       ;       ;       ;       ;        
23/06/2024; 21:31:10; 004;  32,41;   45,3;    404;      0;       ;       ;       ;       ;       ;        
23/06/2024; 21:32:10; 004;  32,41;   45,3;    404;      0;       ;       ;       ;       ;       ;        
23/06/2024; 21:33:10; 004;  32,40;   45,3;    404;      0;       ;       ;       ;       ;       ;        
23/06/2024; 21:34:10; 004;  32,43;   45,3;    404;      0;       ;       ;       ;       ;       ;        
23/06/2024; 21:35:10; 004;  32,41;   45,2;    404;      0;       ;       ;       ;       ;       ;        
23/06/2024; 21:36:10; 004;  32,44;   45,2;    404;      0;       ;       ;       ;       ;       ;        
23/06/2024; 21:37:10; 004;  32,47;   45,3;    404;      0;       ;       ;       ;       ;       ;        
23/06/2024; 21:38:10; 004;  32,44;   45,2;    404;      0;       ;       ;       ;       ;       ;        
23/06/2024; 21:39:10; 004;  32,47;   45,2;    404;      0;       ;       ;       ;       ;       ;        
23/06/2024; 21:40:10; 004;  32,47;   45,2;    404;      0;       ;       ;       ;       ;       ;        
23/06/2024; 21:41:10; 004;  32,47;   45,2;    404;      0;       ;       ;       ;       ;       ;        
23/06/2024; 21:42:10; 004;  32,49;   45,2;    404;      0;       ;       ;       ;       ;       ;        
23/06/2024; 21:43:10; 004;  32,49;   45,2;    404;      0;       ;       ;       ;       ;       ;        
23/06/2024; 21:44:10; 004;  32,51;   45,2;    404;      0;       ;       ;       ;       ;       ;        
23/06/2024; 21:45:10; 004;  32,51;   45,2;    404;      0;       ;       ;       ;       ;       ;        
23/06/2024; 21:46:00;    ;       ;       ;       ;       ;       ;       ;       ;       ;       ;       
23/06/2024; 21:47:00;    ;       ;       ;       ;       ;       ;       ;       ;       ;       ;       
23/06/2024; 21:48:00;    ;       ;       ;       ;       ;       ;       ;       ;       ;       ;       
23/06/2024; 21:49:00;    ;       ;       ;       ;       ;       ;       ;       ;       ;       ;       
23/06/2024; 21:50:00;    ;       ;       ;       ;       ;       ;       ;       ;       ;       ;       
23/06/2024; 21:51:00;    ;       ;       ;       ;       ;       ;       ;       ;       ;       ;       
23/06/2024; 21:52:00;    ;       ;       ;       ;       ;       ;       ;       ;       ;       ;       
23/06/2024; 21:53:00;    ;       ;       ;       ;       ;       ;       ;       ;       ;       ;       
23/06/2024; 21:54:00;    ;       ;       ;       ;       ;       ;       ;       ;       ;       ;       
23/06/2024; 21:55:00;    ;       ;       ;       ;       ;       ;       ;       ;       ;       ;       
23/06/2024; 21:56:00;    ;       ;       ;       ;       ;       ;       ;       ;       ;       ;       
23/06/2024; 21:57:00;    ;       ;       ;       ;       ;       ;       ;       ;       ;       ;       
23/06/2024; 21:58:00;    ;       ;       ;       ;       ;       ;       ;       ;       ;       ;       
23/06/2024; 21:59:00;    ;       ;       ;       ;       ;       ;       ;       ;       ;       ;       
23/06/2024; 22:00:00;    ;       ;       ;       ;       ;       ;       ;       ;       ;       ;       
23/06/2024; 22:01:00;    ;       ;       ;       ;       ;       ;       ;       ;       ;       ;       
23/06/2024; 22:02:00;    ;       ;       ;       ;       ;       ;       ;       ;       ;       ;       
23/06/2024; 22:03:00;    ;       ;       ;       ;       ;       ;       ;       ;       ;       ;       
23/06/2024; 22:04:00;    ;       ;       ;       ;       ;       ;       ;       ;       ;       ;       
23/06/2024; 22:05:00;    ;       ;       ;       ;       ;       ;       ;       ;       ;       ;       
23/06/2024; 22:06:00;    ;       ;       ;       ;       ;       ;       ;       ;       ;       ;       
23/06/2024; 22:07:00;    ;       ;       ;       ;       ;       ;       ;       ;       ;       ;       
23/06/2024; 22:08:00;    ;       ;       ;       ;       ;       ;       ;       ;       ;       ;       
23/06/2024; 22:09:00;    ;       ;       ;       ;       ;       ;       ;       ;       ;       ;       
23/06/2024; 22:10:00;    ;       ;       ;       ;       ;       ;       ;       ;       ;       ;       
23/06/2024; 22:11:00;    ;       ;       ;       ;       ;       ;       ;       ;       ;       ;       
23/06/2024; 22:12:00;    ;       ;       ;       ;       ;       ;       ;       ;       ;       ;       
23/06/2024; 22:13:00;    ;       ;       ;       ;       ;       ;       ;       ;       ;       ;       
23/06/2024; 22:14:00;    ;       ;       ;       ;       ;       ;       ;       ;       ;       ;       
23/06/2024; 22:15:00;    ;       ;       ;       ;       ;       ;       ;       ;       ;       ;       
23/06/2024; 22:16:00;    ;       ;       ;       ;       ;       ;       ;       ;       ;       ;       
23/06/2024; 22:17:00;    ;       ;       ;       ;       ;       ;       ;       ;       ;       ;       
23/06/2024; 22:18:00;    ;       ;       ;       ;       ;       ;       ;       ;       ;       ;       
23/06/2024; 22:19:00;    ;       ;       ;       ;       ;       ;       ;       ;       ;       ;       
23/06/2024; 22:20:00;    ;       ;       ;       ;       ;       ;       ;       ;       ;       ;       
23/06/2024; 22:21:00;    ;       ;       ;       ;       ;       ;       ;       ;       ;       ;       
23/06/2024; 22:22:00;    ;       ;       ;       ;       ;       ;       ;       ;       ;       ;       
23/06/2024; 22:23:00;    ;       ;       ;       ;       ;       ;       ;       ;       ;       ;       
23/06/2024; 22:24:00;    ;       ;       ;       ;       ;       ;       ;       ;       ;       ;       
23/06/2024; 22:25:00;    ;       ;       ;       ;       ;       ;       ;       ;       ;       ;       
23/06/2024; 22:26:00;    ;       ;       ;       ;       ;       ;       ;       ;       ;       ;       
23/06/2024; 22:27:00;    ;       ;       ;       ;       ;       ;       ;       ;       ;       ;       
23/06/2024; 22:28:00;    ;       ;       ;       ;       ;       ;       ;       ;       ;       ;       
23/06/2024; 22:29:00;    ;       ;       ;       ;       ;       ;       ;       ;       ;       ;       
23/06/2024; 22:30:00;    ;       ;       ;       ;       ;       ;       ;       ;       ;       ;       
23/06/2024; 22:31:00;    ;       ;       ;       ;       ;       ;       ;       ;       ;       ;       
23/06/2024; 22:32:00;    ;       ;       ;       ;       ;       ;       ;       ;       ;       ;       
23/06/2024; 22:33:00;    ;       ;       ;       ;       ;       ;       ;       ;       ;       ;       
23/06/2024; 22:34:00;    ;       ;       ;       ;       ;       ;       ;       ;       ;       ;       
23/06/2024; 22:35:00;    ;       ;       ;       ;       ;       ;       ;       ;       ;       ;       
23/06/2024; 22:36:00;    ;       ;       ;       ;       ;       ;       ;       ;       ;       ;       
23/06/2024; 22:37:00;    ;       ;       ;       ;       ;       ;       ;       ;       ;       ;       
23/06/2024; 22:38:00;    ;       ;       ;       ;       ;       ;       ;       ;       ;       ;       
23/06/2024; 22:39:00;    ;       ;       ;       ;       ;       ;       ;       ;       ;       ;       
23/06/2024; 22:40:00;    ;       ;       ;       ;       ;       ;       ;       ;       ;       ;       
23/06/2024; 22:41:00;    ;       ;       ;       ;       ;       ;       ;       ;       ;       ;       
23/06/2024; 22:42:00;    ;       ;       ;       ;       ;       ;       ;       ;       ;       ;       
23/06/2024; 22:43:00;    ;       ;       ;       ;       ;       ;       ;       ;       ;       ;       
23/06/2024; 22:44:00;    ;       ;       ;       ;       ;       ;       ;       ;       ;       ;       
23/06/2024; 22:45:00;    ;       ;       ;       ;       ;       ;       ;       ;       ;       ;       
23/06/2024; 22:46:00;    ;       ;       ;       ;       ;       ;       ;       ;       ;       ;       
23/06/2024; 22:47:00;    ;       ;       ;       ;       ;       ;       ;       ;       ;       ;       
23/06/2024; 22:48:00;    ;       ;       ;       ;       ;       ;       ;       ;       ;       ;       
23/06/2024; 22:49:00;    ;       ;       ;       ;       ;       ;       ;       ;       ;       ;       
23/06/2024; 22:50:00;    ;       ;       ;       ;       ;       ;       ;       ;       ;       ;       
23/06/2024; 22:51:00;    ;       ;       ;       ;       ;       ;       ;       ;       ;       ;       
23/06/2024; 22:52:00;    ;       ;       ;       ;       ;       ;       ;       ;       ;       ;       
23/06/2024; 22:53:00;    ;       ;       ;       ;       ;       ;       ;       ;       ;       ;       
23/06/2024; 22:54:00;    ;       ;       ;       ;       ;       ;       ;       ;       ;       ;       
23/06/2024; 22:55:00;    ;       ;       ;       ;       ;       ;       ;       ;       ;       ;       
23/06/2024; 22:56:00;    ;       ;       ;       ;       ;       ;       ;       ;       ;       ;       
23/06/2024; 22:57:00;    ;       ;       ;       ;       ;       ;       ;       ;       ;       ;       
23/06/2024; 22:58:00;    ;       ;       ;       ;       ;       ;       ;       ;       ;       ;       
23/06/2024; 22:59:00;    ;       ;       ;       ;       ;       ;       ;       ;       ;       ;       
23/06/2024; 23:00:00;    ;       ;       ;       ;       ;       ;       ;       ;       ;       ;       
23/06/2024; 23:01:00;    ;       ;       ;       ;       ;       ;       ;       ;       ;       ;       
23/06/2024; 23:02:00;    ;       ;       ;       ;       ;       ;       ;       ;       ;       ;       
23/06/2024; 23:03:00;    ;       ;       ;       ;       ;       ;       ;       ;       ;       ;       
23/06/2024; 23:04:00;    ;       ;       ;       ;       ;       ;       ;       ;       ;       ;       
23/06/2024; 23:05:00;    ;       ;       ;       ;       ;       ;       ;       ;       ;       ;       
23/06/2024; 23:06:00;    ;       ;       ;       ;       ;       ;       ;       ;       ;       ;       
23/06/2024; 23:07:00;    ;       ;       ;       ;       ;       ;       ;       ;       ;       ;       
23/06/2024; 23:08:00;    ;       ;       ;       ;       ;       ;       ;       ;       ;       ;       
23/06/2024; 23:09:00;    ;       ;       ;       ;       ;       ;       ;       ;       ;       ;       
23/06/2024; 23:10:00;    ;       ;       ;       ;       ;       ;       ;       ;       ;       ;       
23/06/2024; 23:11:00;    ;       ;       ;       ;       ;       ;       ;       ;       ;       ;       
23/06/2024; 23:12:00;    ;       ;       ;       ;       ;       ;       ;       ;       ;       ;       
23/06/2024; 23:13:00;    ;       ;       ;       ;       ;       ;       ;       ;       ;       ;       
23/06/2024; 23:14:00;    ;       ;       ;       ;       ;       ;       ;       ;       ;       ;       
23/06/2024; 23:15:00;    ;       ;       ;       ;       ;       ;       ;       ;       ;       ;       
23/06/2024; 23:16:00;    ;       ;       ;       ;       ;       ;       ;       ;       ;       ;       
23/06/2024; 23:17:00;    ;       ;       ;       ;       ;       ;       ;       ;       ;       ;       
23/06/2024; 23:18:00;    ;       ;       ;       ;       ;       ;       ;       ;       ;       ;       
23/06/2024; 23:19:00;    ;       ;       ;       ;       ;       ;       ;       ;       ;       ;       
23/06/2024; 23:20:00;    ;       ;       ;       ;       ;       ;       ;       ;       ;       ;       
23/06/2024; 23:21:00;    ;       ;       ;       ;       ;       ;       ;       ;       ;       ;       
23/06/2024; 23:22:00;    ;       ;       ;       ;       ;       ;       ;       ;       ;       ;       
23/06/2024; 23:23:00;    ;       ;       ;       ;       ;       ;       ;       ;       ;       ;       
23/06/2024; 23:24:00;    ;       ;       ;       ;       ;       ;       ;       ;       ;       ;       
23/06/2024; 23:25:00;    ;       ;       ;       ;       ;       ;       ;       ;       ;       ;       
23/06/2024; 23:26:00;    ;       ;       ;       ;       ;       ;       ;       ;       ;       ;       
23/06/2024; 23:27:00;    ;       ;       ;       ;       ;       ;       ;       ;       ;       ;       
23/06/2024; 23:28:00;    ;       ;       ;       ;       ;       ;       ;       ;       ;       ;       
23/06/2024; 23:29:00;    ;       ;       ;       ;       ;       ;       ;       ;       ;       ;       
23/06/2024; 23:30:00;    ;       ;       ;       ;       ;       ;       ;       ;       ;       ;       
23/06/2024; 23:31:00;    ;       ;       ;       ;       ;       ;       ;       ;       ;       ;       
23/06/2024; 23:32:00;    ;       ;       ;       ;       ;       ;       ;       ;       ;       ;       
23/06/2024; 23:33:00;    ;       ;       ;       ;       ;       ;       ;       ;       ;       ;       
23/06/2024; 23:34:00;    ;       ;       ;       ;       ;       ;       ;       ;       ;       ;       
23/06/2024; 23:35:00;    ;       ;       ;       ;       ;       ;       ;       ;       ;       ;       
23/06/2024; 23:36:00;    ;       ;       ;       ;       ;       ;       ;       ;       ;       ;       
23/06/2024; 23:37:00;    ;       ;       ;       ;       ;       ;       ;       ;       ;       ;       
23/06/2024; 23:38:00;    ;       ;       ;       ;       ;       ;       ;       ;       ;       ;       
23/06/2024; 23:39:00;    ;       ;       ;       ;       ;       ;       ;       ;       ;       ;       
23/06/2024; 23:40:00;    ;       ;       ;       ;       ;       ;       ;       ;       ;       ;       
23/06/2024; 23:41:00;    ;       ;       ;       ;       ;       ;       ;       ;       ;       ;       
23/06/2024; 23:42:00;    ;       ;       ;       ;       ;       ;       ;       ;       ;       ;       
23/06/2024; 23:43:00;    ;       ;       ;       ;       ;       ;       ;       ;       ;       ;       
23/06/2024; 23:44:00;    ;       ;       ;       ;       ;       ;       ;       ;       ;       ;       
23/06/2024; 23:45:00;    ;       ;       ;       ;       ;       ;       ;       ;       ;       ;       
23/06/2024; 23:46:00;    ;       ;       ;       ;       ;       ;       ;       ;       ;       ;       
23/06/2024; 23:47:00;    ;       ;       ;       ;       ;       ;       ;       ;       ;       ;       
23/06/2024; 23:48:00;    ;       ;       ;       ;       ;       ;       ;       ;       ;       ;       
23/06/2024; 23:49:00;    ;       ;       ;       ;       ;       ;       ;       ;       ;       ;       
23/06/2024; 23:50:00;    ;       ;       ;       ;       ;       ;       ;       ;       ;       ;       
23/06/2024; 23:51:00;    ;       ;       ;       ;       ;       ;       ;       ;       ;       ;       
23/06/2024; 23:52:00;    ;       ;       ;       ;       ;       ;       ;       ;       ;       ;       
23/06/2024; 23:53:00;    ;       ;       ;       ;       ;       ;       ;       ;       ;       ;       
23/06/2024; 23:54:00;    ;       ;       ;       ;       ;       ;       ;       ;       ;       ;       
23/06/2024; 23:55:00;    ;       ;       ;       ;       ;       ;       ;       ;       ;       ;       
23/06/2024; 23:56:00;    ;       ;       ;       ;       ;       ;       ;       ;       ;       ;       
23/06/2024; 23:57:00;    ;       ;       ;       ;       ;       ;       ;       ;       ;       ;       
23/06/2024; 23:58:00;    ;       ;       ;       ;       ;       ;       ;       ;       ;       ;       
23/06/2024; 23:59:00;    ;       ;       ;       ;       ;       ;       ;       ;       ;       ;